| time (UTC) | temp F | wind direction | speed MPH | gust MPH | rain 1hr in | rain 24hr in | rain mn in | humidity % | barometer mb |
| 20260509180003 | 66 | 61 | 6.0 | 13.0 | 0.00 | 0.00 | 0.00 | 49 | 1003.9 |
| 20260509175803 | 66 | 55 | 6.0 | 12.0 | 0.00 | 0.00 | 0.00 | 48 | 1003.8 |
| 20260509175603 | 66 | 42 | 7.0 | 15.0 | 0.00 | 0.00 | 0.00 | 48 | 1003.8 |
| 20260509175403 | 66 | 35 | 7.0 | 15.0 | 0.00 | 0.00 | 0.00 | 47 | 1003.9 |
| 20260509175203 | 66 | 27 | 7.0 | 15.0 | 0.00 | 0.00 | 0.00 | 48 | 1003.9 |
| 20260509175003 | 67 | 21 | 7.0 | 15.0 | 0.00 | 0.00 | 0.00 | 47 | 1003.9 |
| 20260509174803 | 67 | 10 | 6.0 | 15.0 | 0.00 | 0.00 | 0.00 | 47 | 1003.9 |
| 20260509174603 | 67 | 358 | 6.0 | 12.0 | 0.00 | 0.00 | 0.00 | 48 | 1003.8 |
| 20260509174403 | 67 | 344 | 6.0 | 15.0 | 0.00 | 0.00 | 0.00 | 47 | 1003.8 |
| 20260509174224 | 67 | 334 | 6.0 | 15.0 | 0.00 | 0.00 | 0.00 | 49 | 1003.8 |
| 20260509174003 | 67 | 324 | 7.0 | 15.0 | 0.00 | 0.00 | 0.00 | 46 | 1003.8 |
| 20260509173803 | 67 | 329 | 7.0 | 15.0 | 0.00 | 0.00 | 0.00 | 46 | 1003.9 |
| 20260509173603 | 67 | 334 | 6.0 | 15.0 | 0.00 | 0.00 | 0.00 | 46 | 1003.8 |
| 20260509173403 | 67 | 340 | 6.0 | 15.0 | 0.00 | 0.00 | 0.00 | 46 | 1003.9 |
| 20260509173224 | 67 | 340 | 5.0 | 15.0 | 0.00 | 0.00 | 0.00 | 45 | 1003.9 |
| 20260509173003 | 67 | 350 | 6.0 | 15.0 | 0.00 | 0.00 | 0.00 | 49 | 1003.9 |
| 20260509172803 | 67 | 344 | 6.0 | 15.0 | 0.00 | 0.00 | 0.00 | 47 | 1003.8 |
| 20260509172603 | 66 | 343 | 7.0 | 14.0 | 0.00 | 0.00 | 0.00 | 47 | 1004.0 |
| 20260509172403 | 66 | 341 | 7.0 | 13.0 | 0.00 | 0.00 | 0.00 | 46 | 1004.1 |
| 20260509172203 | 66 | 339 | 7.0 | 17.0 | 0.00 | 0.00 | 0.00 | 44 | 1004.0 |
| 20260509172003 | 67 | 331 | 7.0 | 17.0 | 0.00 | 0.00 | 0.00 | 44 | 1003.9 |
| 20260509171803 | 67 | 328 | 8.0 | 17.0 | 0.00 | 0.00 | 0.00 | 45 | 1003.9 |
| 20260509171603 | 67 | 320 | 8.0 | 17.0 | 0.00 | 0.00 | 0.00 | 45 | 1003.9 |
| 20260509171403 | 67 | 317 | 8.0 | 17.0 | 0.00 | 0.00 | 0.00 | 45 | 1003.8 |
| 20260509171203 | 67 | 318 | 8.0 | 14.0 | 0.00 | 0.00 | 0.00 | 44 | 1003.7 |
| 20260509171003 | 66 | 330 | 8.0 | 14.0 | 0.00 | 0.00 | 0.00 | 45 | 1003.7 |
| 20260509170803 | 67 | 334 | 8.0 | 14.0 | 0.00 | 0.00 | 0.00 | 44 | 1003.7 |
| 20260509170603 | 67 | 347 | 7.0 | 17.0 | 0.00 | 0.00 | 0.00 | 43 | 1003.7 |
| 20260509170403 | 67 | 355 | 7.0 | 17.0 | 0.00 | 0.00 | 0.00 | 46 | 1003.7 |
| 20260509170203 | 67 | 350 | 8.0 | 17.0 | 0.00 | 0.00 | 0.00 | 44 | 1003.7 |
| 20260509170003 | 67 | 343 | 8.0 | 17.0 | 0.00 | 0.00 | 0.00 | 44 | 1003.7 |
| 20260509165803 | 67 | 342 | 8.0 | 17.0 | 0.00 | 0.00 | 0.00 | 44 | 1003.7 |
| 20260509165624 | 67 | 341 | 8.0 | 17.0 | 0.00 | 0.00 | 0.00 | 43 | 1003.6 |
| 20260509165403 | 66 | 345 | 8.0 | 14.0 | 0.00 | 0.00 | 0.00 | 43 | 1003.5 |
| 20260509165203 | 67 | 355 | 8.0 | 14.0 | 0.00 | 0.00 | 0.00 | 43 | 1003.6 |
| 20260509165003 | 67 | 359 | 9.0 | 19.0 | 0.00 | 0.00 | 0.00 | 43 | 1003.5 |
| 20260509164803 | 67 | 355 | 9.0 | 20.0 | 0.00 | 0.00 | 0.00 | 44 | 1003.5 |
| 20260509164603 | 67 | 351 | 10.0 | 21.0 | 0.00 | 0.00 | 0.00 | 44 | 1003.5 |
| 20260509164403 | 67 | 347 | 10.0 | 21.0 | 0.00 | 0.00 | 0.00 | 45 | 1003.5 |
| 20260509164203 | 67 | 346 | 10.0 | 21.0 | 0.00 | 0.00 | 0.00 | 42 | 1003.5 |
| 20260509164003 | 67 | 344 | 9.0 | 21.0 | 0.00 | 0.00 | 0.00 | 40 | 1003.5 |
| 20260509163804 | 68 | 345 | 9.0 | 21.0 | 0.00 | 0.00 | 0.00 | 40 | 1003.5 |
| 20260509163603 | 68 | 340 | 9.0 | 21.0 | 0.00 | 0.00 | 0.00 | 39 | 1003.5 |
| 20260509163403 | 68 | 335 | 9.0 | 15.0 | 0.00 | 0.00 | 0.00 | 42 | 1003.4 |
| 20260509163224 | 68 | 327 | 10.0 | 17.0 | 0.00 | 0.00 | 0.00 | 43 | 1003.5 |
| 20260509163024 | 68 | 318 | 10.0 | 18.0 | 0.00 | 0.00 | 0.00 | 43 | 1003.4 |
| 20260509162803 | 67 | 311 | 11.0 | 20.0 | 0.00 | 0.00 | 0.00 | 43 | 1003.5 |
| 20260509162603 | 67 | 310 | 11.0 | 20.0 | 0.00 | 0.00 | 0.00 | 43 | 1003.4 |
| 20260509162403 | 67 | 309 | 11.0 | 20.0 | 0.00 | 0.00 | 0.00 | 41 | 1003.4 |
| 20260509162203 | 67 | 308 | 11.0 | 20.0 | 0.00 | 0.00 | 0.00 | 42 | 1003.4 |
| 20260509162003 | 67 | 307 | 11.0 | 20.0 | 0.00 | 0.00 | 0.00 | 42 | 1003.4 |
| 20260509161803 | 67 | 307 | 11.0 | 17.0 | 0.00 | 0.00 | 0.00 | 44 | 1003.3 |
| 20260509161603 | 67 | 306 | 11.0 | 17.0 | 0.00 | 0.00 | 0.00 | 46 | 1003.4 |
| 20260509161403 | 67 | 306 | 11.0 | 17.0 | 0.00 | 0.00 | 0.00 | 46 | 1003.4 |
| 20260509161203 | 67 | 306 | 10.0 | 17.0 | 0.00 | 0.00 | 0.00 | 47 | 1003.4 |
| 20260509161003 | 67 | 310 | 9.0 | 17.0 | 0.00 | 0.00 | 0.00 | 48 | 1003.4 |
| 20260509160803 | 67 | 314 | 8.0 | 15.0 | 0.00 | 0.00 | 0.00 | 48 | 1003.3 |
| 20260509160603 | 66 | 318 | 8.0 | 14.0 | 0.00 | 0.00 | 0.00 | 47 | 1003.5 |
| 20260509160403 | 66 | 317 | 8.0 | 14.0 | 0.00 | 0.00 | 0.00 | 48 | 1003.3 |
| 20260509160224 | 66 | 317 | 9.0 | 15.0 | 0.00 | 0.00 | 0.00 | 48 | 1003.4 |
| 20260509160003 | 66 | 313 | 9.0 | 15.0 | 0.00 | 0.00 | 0.00 | 47 | 1003.3 |
| 20260509155824 | 66 | 312 | 9.0 | 16.0 | 0.00 | 0.00 | 0.00 | 46 | 1003.4 |
| 20260509155603 | 66 | 312 | 10.0 | 16.0 | 0.00 | 0.00 | 0.00 | 48 | 1003.4 |
| 20260509155403 | 66 | 310 | 10.0 | 16.0 | 0.00 | 0.00 | 0.00 | 48 | 1003.4 |
| 20260509155203 | 66 | 310 | 10.0 | 20.0 | 0.00 | 0.00 | 0.00 | 49 | 1003.4 |
| 20260509155003 | 66 | 309 | 11.0 | 20.0 | 0.00 | 0.00 | 0.00 | 49 | 1003.3 |
| 20260509154803 | 65 | 307 | 11.0 | 20.0 | 0.00 | 0.00 | 0.00 | 48 | 1003.3 |
| 20260509154603 | 66 | 306 | 11.0 | 20.0 | 0.00 | 0.00 | 0.00 | 49 | 1003.2 |
| 20260509154424 | 65 | 307 | 10.0 | 20.0 | 0.00 | 0.00 | 0.00 | 48 | 1003.3 |
| 20260509154203 | 65 | 306 | 10.0 | 18.0 | 0.00 | 0.00 | 0.00 | 51 | 1003.3 |
| 20260509154003 | 65 | 306 | 9.0 | 17.0 | 0.00 | 0.00 | 0.00 | 51 | 1003.3 |
| 20260509153824 | 65 | 307 | 9.0 | 17.0 | 0.00 | 0.00 | 0.00 | 49 | 1003.3 |
| 20260509153603 | 65 | 308 | 9.0 | 16.0 | 0.00 | 0.00 | 0.00 | 52 | 1003.4 |
| 20260509153403 | 65 | 307 | 10.0 | 17.0 | 0.00 | 0.00 | 0.00 | 51 | 1003.4 |
| 20260509153203 | 65 | 308 | 9.0 | 17.0 | 0.00 | 0.00 | 0.00 | 54 | 1003.4 |
| 20260509153003 | 64 | 308 | 10.0 | 17.0 | 0.00 | 0.00 | 0.00 | 54 | 1003.4 |
| 20260509152803 | 64 | 307 | 10.0 | 17.0 | 0.00 | 0.00 | 0.00 | 52 | 1003.4 |
| 20260509152603 | 64 | 305 | 10.0 | 17.0 | 0.00 | 0.00 | 0.00 | 53 | 1003.5 |
| 20260509152403 | 64 | 307 | 10.0 | 17.0 | 0.00 | 0.00 | 0.00 | 55 | 1003.5 |
| 20260509152203 | 64 | 306 | 10.0 | 17.0 | 0.00 | 0.00 | 0.00 | 53 | 1003.6 |
| 20260509152003 | 64 | 305 | 10.0 | 18.0 | 0.00 | 0.00 | 0.00 | 55 | 1003.6 |
| 20260509151824 | 63 | 305 | 9.0 | 18.0 | 0.00 | 0.00 | 0.00 | 54 | 1003.6 |
| 20260509151603 | 63 | 307 | 10.0 | 18.0 | 0.00 | 0.00 | 0.00 | 55 | 1003.7 |
| 20260509151403 | 63 | 306 | 9.0 | 18.0 | 0.00 | 0.00 | 0.00 | 54 | 1003.7 |
| 20260509151203 | 63 | 307 | 9.0 | 18.0 | 0.00 | 0.00 | 0.00 | 54 | 1003.8 |
| 20260509151003 | 63 | 307 | 9.0 | 15.0 | 0.00 | 0.00 | 0.00 | 55 | 1003.7 |
| 20260509150803 | 63 | 308 | 10.0 | 15.0 | 0.00 | 0.00 | 0.00 | 55 | 1003.9 |
| 20260509150603 | 63 | 307 | 10.0 | 15.0 | 0.00 | 0.00 | 0.00 | 58 | 1003.9 |
| 20260509150403 | 62 | 306 | 10.0 | 15.0 | 0.00 | 0.00 | 0.00 | 58 | 1003.8 |
| 20260509150203 | 62 | 305 | 10.0 | 15.0 | 0.00 | 0.00 | 0.00 | 56 | 1003.8 |
| 20260509150003 | 62 | 304 | 10.0 | 17.0 | 0.00 | 0.00 | 0.00 | 56 | 1004.0 |
| 20260509145803 | 62 | 304 | 10.0 | 17.0 | 0.00 | 0.00 | 0.00 | 57 | 1003.9 |
| 20260509145603 | 62 | 303 | 10.0 | 17.0 | 0.00 | 0.00 | 0.00 | 58 | 1003.9 |
| 20260509145403 | 62 | 305 | 10.0 | 17.0 | 0.00 | 0.00 | 0.00 | 58 | 1003.9 |
| 20260509145203 | 61 | 307 | 10.0 | 17.0 | 0.00 | 0.00 | 0.00 | 58 | 1003.9 |
| 20260509145024 | 61 | 307 | 10.0 | 17.0 | 0.00 | 0.00 | 0.00 | 58 | 1003.9 |
| 20260509144829 | 61 | 310 | 10.0 | 17.0 | 0.00 | 0.00 | 0.00 | 58 | 1003.9 |
| 20260509144603 | 61 | 309 | 11.0 | 17.0 | 0.00 | 0.00 | 0.00 | 60 | 1003.9 |
| 20260509144403 | 61 | 309 | 11.0 | 17.0 | 0.00 | 0.00 | 0.00 | 59 | 1003.9 |
| 20260509144203 | 61 | 306 | 11.0 | 17.0 | 0.00 | 0.00 | 0.00 | 59 | 1003.8 |
| 20260509144003 | 60 | 306 | 11.0 | 19.0 | 0.00 | 0.00 | 0.00 | 58 | 1003.8 |
| 20260509143803 | 60 | 305 | 11.0 | 19.0 | 0.00 | 0.00 | 0.00 | 59 | 1003.8 |
| 20260509143624 | 60 | 305 | 11.0 | 19.0 | 0.00 | 0.00 | 0.00 | 61 | 1003.8 |
| 20260509143446 | 60 | 303 | 10.0 | 19.0 | 0.00 | 0.00 | 0.00 | 60 | 1003.9 |
| 20260509143203 | 60 | 302 | 10.0 | 19.0 | 0.00 | 0.00 | 0.00 | 60 | 1003.9 |
| 20260509143003 | 60 | 301 | 10.0 | 17.0 | 0.00 | 0.00 | 0.00 | 60 | 1003.8 |
| 20260509142803 | 60 | 301 | 10.0 | 17.0 | 0.00 | 0.00 | 0.00 | 59 | 1003.9 |
| 20260509142624 | 60 | 300 | 9.0 | 15.0 | 0.00 | 0.00 | 0.00 | 60 | 1003.9 |
| 20260509142403 | 60 | 300 | 10.0 | 15.0 | 0.00 | 0.00 | 0.00 | 60 | 1003.8 |
| 20260509142203 | 59 | 299 | 10.0 | 15.0 | 0.00 | 0.00 | 0.00 | 60 | 1003.9 |
| 20260509142003 | 59 | 299 | 9.0 | 13.0 | 0.00 | 0.00 | 0.00 | 62 | 1004.0 |
| 20260509141803 | 59 | 298 | 10.0 | 14.0 | 0.00 | 0.00 | 0.00 | 61 | 1003.9 |
| 20260509141603 | 59 | 298 | 10.0 | 15.0 | 0.00 | 0.00 | 0.00 | 62 | 1004.0 |
| 20260509141403 | 59 | 297 | 9.0 | 15.0 | 0.00 | 0.00 | 0.00 | 61 | 1004.1 |
| 20260509141203 | 58 | 297 | 9.0 | 15.0 | 0.00 | 0.00 | 0.00 | 62 | 1003.7 |
| 20260509141003 | 58 | 297 | 9.0 | 15.0 | 0.00 | 0.00 | 0.00 | 61 | 1003.6 |
| 20260509140803 | 58 | 296 | 8.0 | 15.0 | 0.00 | 0.00 | 0.00 | 61 | 1003.6 |
| 20260509140603 | 58 | 297 | 8.0 | 13.0 | 0.00 | 0.00 | 0.00 | 61 | 1003.7 |
| 20260509140424 | 58 | 297 | 8.0 | 13.0 | 0.00 | 0.00 | 0.00 | 61 | 1003.7 |
| 20260509140203 | 58 | 297 | 8.0 | 13.0 | 0.00 | 0.00 | 0.00 | 61 | 1003.8 |
| 20260509140024 | 58 | 296 | 8.0 | 13.0 | 0.00 | 0.00 | 0.00 | 61 | 1003.9 |
| 20260509135803 | 58 | 296 | 8.0 | 14.0 | 0.00 | 0.00 | 0.00 | 62 | 1003.9 |
| 20260509135603 | 58 | 295 | 8.0 | 14.0 | 0.00 | 0.00 | 0.00 | 61 | 1003.9 |
| 20260509135403 | 58 | 294 | 8.0 | 14.0 | 0.00 | 0.00 | 0.00 | 62 | 1003.9 |
| 20260509135204 | 57 | 293 | 9.0 | 15.0 | 0.00 | 0.00 | 0.00 | 63 | 1003.9 |
| 20260509135003 | 57 | 295 | 9.0 | 15.0 | 0.00 | 0.00 | 0.00 | 62 | 1003.9 |
| 20260509134803 | 57 | 295 | 9.0 | 15.0 | 0.00 | 0.00 | 0.00 | 62 | 1003.9 |
| 20260509134624 | 57 | 295 | 9.0 | 15.0 | 0.00 | 0.00 | 0.00 | 62 | 1004.0 |
| 20260509134403 | 57 | 295 | 9.0 | 15.0 | 0.00 | 0.00 | 0.00 | 61 | 1003.9 |
| 20260509134224 | 57 | 296 | 9.0 | 17.0 | 0.00 | 0.00 | 0.00 | 62 | 1004.0 |
| 20260509134003 | 57 | 294 | 9.0 | 17.0 | 0.00 | 0.00 | 0.00 | 63 | 1004.0 |
| 20260509133804 | 57 | 294 | 9.0 | 17.0 | 0.00 | 0.00 | 0.00 | 63 | 1004.0 |
| 20260509133603 | 57 | 293 | 8.0 | 17.0 | 0.00 | 0.00 | 0.00 | 62 | 1003.9 |
| 20260509133403 | 57 | 294 | 8.0 | 17.0 | 0.00 | 0.00 | 0.00 | 63 | 1004.0 |
| 20260509133224 | 57 | 294 | 8.0 | 16.0 | 0.00 | 0.00 | 0.00 | 62 | 1004.1 |
| 20260509133004 | 57 | 296 | 7.0 | 13.0 | 0.00 | 0.00 | 0.00 | 62 | 1004.0 |
| 20260509132803 | 57 | 297 | 7.0 | 12.0 | 0.00 | 0.00 | 0.00 | 62 | 1004.1 |
| 20260509132603 | 57 | 297 | 7.0 | 12.0 | 0.00 | 0.00 | 0.00 | 64 | 1004.0 |
| 20260509132403 | 57 | 298 | 7.0 | 12.0 | 0.00 | 0.00 | 0.00 | 63 | 1004.0 |
| 20260509132203 | 56 | 299 | 7.0 | 12.0 | 0.00 | 0.00 | 0.00 | 64 | 1004.1 |
| 20260509132024 | 56 | 297 | 7.0 | 12.0 | 0.00 | 0.00 | 0.00 | 64 | 1004.1 |
| 20260509131803 | 56 | 295 | 7.0 | 12.0 | 0.00 | 0.00 | 0.00 | 64 | 1004.0 |
| 20260509131603 | 56 | 296 | 7.0 | 11.0 | 0.00 | 0.00 | 0.00 | 64 | 1004.1 |
| 20260509131424 | 56 | 295 | 7.0 | 12.0 | 0.00 | 0.00 | 0.00 | 64 | 1004.1 |
| 20260509131203 | 56 | 294 | 7.0 | 12.0 | 0.00 | 0.00 | 0.00 | 64 | 1004.2 |
| 20260509131024 | 56 | 295 | 7.0 | 12.0 | 0.00 | 0.00 | 0.00 | 65 | 1004.1 |
| 20260509130803 | 55 | 296 | 7.0 | 12.0 | 0.00 | 0.00 | 0.00 | 65 | 1004.1 |
| 20260509130624 | 55 | 296 | 7.0 | 12.0 | 0.00 | 0.00 | 0.00 | 64 | 1004.2 |
| 20260509130403 | 55 | 298 | 7.0 | 12.0 | 0.00 | 0.00 | 0.00 | 65 | 1004.2 |
| 20260509130203 | 55 | 298 | 7.0 | 12.0 | 0.00 | 0.00 | 0.00 | 65 | 1004.2 |
| 20260509130003 | 55 | 299 | 6.0 | 12.0 | 0.00 | 0.00 | 0.00 | 65 | 1004.3 |
| 20260509125803 | 55 | 298 | 6.0 | 12.0 | 0.00 | 0.00 | 0.00 | 65 | 1004.3 |
| 20260509125603 | 55 | 298 | 6.0 | 12.0 | 0.00 | 0.00 | 0.00 | 66 | 1004.3 |
| 20260509125424 | 55 | 299 | 6.0 | 12.0 | 0.00 | 0.00 | 0.00 | 66 | 1004.3 |
| 20260509125224 | 55 | 300 | 6.0 | 10.0 | 0.00 | 0.00 | 0.00 | 66 | 1004.3 |
| 20260509125003 | 54 | 299 | 7.0 | 10.0 | 0.00 | 0.00 | 0.00 | 66 | 1004.3 |
| 20260509124803 | 54 | 298 | 7.0 | 13.0 | 0.00 | 0.00 | 0.00 | 66 | 1004.3 |
| 20260509124624 | 54 | 298 | 7.0 | 13.0 | 0.00 | 0.00 | 0.00 | 67 | 1004.4 |
| 20260509124424 | 54 | 298 | 7.0 | 13.0 | 0.00 | 0.00 | 0.00 | 67 | 1004.4 |
| 20260509124203 | 54 | 298 | 7.0 | 13.0 | 0.00 | 0.00 | 0.00 | 67 | 1004.3 |
| 20260509124003 | 54 | 297 | 7.0 | 13.0 | 0.00 | 0.00 | 0.00 | 67 | 1004.3 |
| 20260509123803 | 54 | 298 | 6.0 | 12.0 | 0.00 | 0.00 | 0.00 | 66 | 1004.4 |
| 20260509123603 | 54 | 299 | 7.0 | 12.0 | 0.00 | 0.00 | 0.00 | 67 | 1004.4 |
| 20260509123403 | 54 | 297 | 6.0 | 12.0 | 0.00 | 0.00 | 0.00 | 66 | 1004.4 |
| 20260509123203 | 54 | 297 | 6.0 | 12.0 | 0.00 | 0.00 | 0.00 | 66 | 1004.4 |
| 20260509123003 | 54 | 298 | 6.0 | 12.0 | 0.00 | 0.00 | 0.00 | 67 | 1004.4 |
| 20260509122803 | 54 | 299 | 6.0 | 11.0 | 0.00 | 0.00 | 0.00 | 67 | 1004.5 |
| 20260509122603 | 54 | 298 | 6.0 | 11.0 | 0.00 | 0.00 | 0.00 | 67 | 1004.5 |
| 20260509122403 | 54 | 298 | 6.0 | 10.0 | 0.00 | 0.00 | 0.00 | 67 | 1004.5 |
| 20260509122203 | 54 | 297 | 6.0 | 11.0 | 0.00 | 0.00 | 0.00 | 68 | 1004.5 |
| 20260509122024 | 54 | 296 | 6.0 | 11.0 | 0.00 | 0.00 | 0.00 | 68 | 1004.6 |
| 20260509121803 | 53 | 295 | 6.0 | 11.0 | 0.00 | 0.00 | 0.00 | 67 | 1004.6 |
| 20260509121603 | 53 | 294 | 6.0 | 11.0 | 0.00 | 0.00 | 0.00 | 68 | 1004.5 |
| 20260509121424 | 53 | 294 | 5.0 | 11.0 | 0.00 | 0.00 | 0.00 | 68 | 1004.5 |
| 20260509121203 | 53 | 296 | 5.0 | 11.0 | 0.00 | 0.00 | 0.00 | 68 | 1004.6 |
| 20260509121003 | 53 | 297 | 6.0 | 11.0 | 0.00 | 0.00 | 0.00 | 68 | 1004.6 |
| 20260509120803 | 53 | 297 | 6.0 | 11.0 | 0.00 | 0.00 | 0.00 | 68 | 1004.7 |
| 20260509120603 | 53 | 298 | 5.0 | 9.0 | 0.00 | 0.00 | 0.00 | 68 | 1004.7 |
| 20260509120403 | 53 | 297 | 5.0 | 9.0 | 0.00 | 0.00 | 0.00 | 68 | 1004.7 |
| 20260509120203 | 53 | 296 | 5.0 | 9.0 | 0.00 | 0.00 | 0.00 | 68 | 1004.7 |
| 20260509120024 | 53 | 296 | 5.0 | 9.0 | 0.00 | 0.00 | 0.00 | 68 | 1004.7 |
| 20260509115803 | 53 | 297 | 5.0 | 9.0 | 0.00 | 0.00 | 0.00 | 69 | 1004.7 |
| 20260509115603 | 53 | 298 | 5.0 | 9.0 | 0.00 | 0.00 | 0.00 | 69 | 1004.7 |
| 20260509115403 | 53 | 298 | 5.0 | 9.0 | 0.00 | 0.00 | 0.00 | 69 | 1004.7 |
| 20260509115203 | 53 | 299 | 6.0 | 9.0 | 0.00 | 0.00 | 0.00 | 69 | 1004.7 |
| 20260509115003 | 53 | 296 | 6.0 | 11.0 | 0.00 | 0.00 | 0.00 | 69 | 1004.7 |
| 20260509114803 | 53 | 296 | 6.0 | 11.0 | 0.00 | 0.00 | 0.00 | 69 | 1004.8 |
| 20260509114604 | 53 | 296 | 6.0 | 11.0 | 0.00 | 0.00 | 0.00 | 70 | 1004.9 |
| 20260509114403 | 53 | 297 | 6.0 | 11.0 | 0.00 | 0.00 | 0.00 | 70 | 1004.9 |
| 20260509114203 | 53 | 297 | 6.0 | 11.0 | 0.00 | 0.00 | 0.00 | 70 | 1005.0 |
| 20260509114003 | 53 | 298 | 5.0 | 11.0 | 0.00 | 0.00 | 0.00 | 70 | 1005.0 |
| 20260509113803 | 52 | 299 | 5.0 | 13.0 | 0.00 | 0.00 | 0.00 | 71 | 1005.0 |
| 20260509113603 | 52 | 299 | 5.0 | 13.0 | 0.00 | 0.00 | 0.00 | 71 | 1004.9 |
| 20260509113403 | 52 | 300 | 5.0 | 13.0 | 0.00 | 0.00 | 0.00 | 71 | 1004.9 |
| 20260509113203 | 52 | 300 | 5.0 | 13.0 | 0.00 | 0.00 | 0.00 | 71 | 1004.9 |
| 20260509113003 | 52 | 300 | 6.0 | 13.0 | 0.00 | 0.00 | 0.00 | 71 | 1005.0 |
| 20260509112803 | 52 | 299 | 5.0 | 10.0 | 0.00 | 0.00 | 0.00 | 72 | 1004.9 |
| 20260509112624 | 52 | 298 | 6.0 | 10.0 | 0.00 | 0.00 | 0.00 | 72 | 1004.9 |
| 20260509112403 | 52 | 298 | 6.0 | 10.0 | 0.00 | 0.00 | 0.00 | 72 | 1004.9 |
| 20260509112203 | 52 | 297 | 6.0 | 10.0 | 0.00 | 0.00 | 0.00 | 72 | 1004.9 |
| 20260509112003 | 52 | 299 | 6.0 | 10.0 | 0.00 | 0.00 | 0.00 | 72 | 1005.0 |
| 20260509111803 | 52 | 300 | 6.0 | 10.0 | 0.00 | 0.00 | 0.00 | 72 | 1005.0 |
| 20260509111603 | 52 | 300 | 6.0 | 10.0 | 0.00 | 0.00 | 0.00 | 72 | 1005.0 |
| 20260509111403 | 52 | 301 | 6.0 | 10.0 | 0.00 | 0.00 | 0.00 | 73 | 1005.1 |
| 20260509111225 | 52 | 302 | 6.0 | 10.0 | 0.00 | 0.00 | 0.00 | 73 | 1005.0 |
| 20260509111003 | 52 | 301 | 6.0 | 10.0 | 0.00 | 0.00 | 0.00 | 73 | 1005.1 |
| 20260509110803 | 52 | 300 | 5.0 | 9.0 | 0.00 | 0.00 | 0.00 | 73 | 1005.0 |
| 20260509110624 | 52 | 300 | 5.0 | 9.0 | 0.00 | 0.00 | 0.00 | 73 | 1005.0 |
| 20260509110424 | 52 | 299 | 5.0 | 9.0 | 0.00 | 0.00 | 0.00 | 73 | 1004.9 |
| 20260509110203 | 52 | 298 | 5.0 | 9.0 | 0.00 | 0.00 | 0.00 | 73 | 1004.9 |
| 20260509110024 | 52 | 298 | 5.0 | 9.0 | 0.00 | 0.00 | 0.00 | 73 | 1004.9 |
| 20260509105803 | 52 | 298 | 5.0 | 9.0 | 0.00 | 0.00 | 0.00 | 73 | 1004.9 |
| 20260509105603 | 52 | 298 | 5.0 | 9.0 | 0.00 | 0.00 | 0.00 | 73 | 1004.9 |
| 20260509105403 | 52 | 296 | 5.0 | 9.0 | 0.00 | 0.00 | 0.00 | 73 | 1004.8 |
| 20260509105203 | 52 | 297 | 5.0 | 9.0 | 0.00 | 0.00 | 0.00 | 73 | 1004.8 |
| 20260509105024 | 52 | 297 | 5.0 | 9.0 | 0.00 | 0.00 | 0.00 | 74 | 1004.9 |
| 20260509104803 | 52 | 296 | 5.0 | 9.0 | 0.00 | 0.00 | 0.00 | 73 | 1004.8 |
| 20260509104603 | 52 | 296 | 5.0 | 9.0 | 0.00 | 0.00 | 0.00 | 74 | 1004.9 |
| 20260509104403 | 52 | 297 | 5.0 | 8.0 | 0.00 | 0.00 | 0.00 | 74 | 1004.9 |
| 20260509104203 | 52 | 298 | 5.0 | 8.0 | 0.00 | 0.00 | 0.00 | 74 | 1004.9 |
| 20260509104003 | 52 | 298 | 5.0 | 8.0 | 0.00 | 0.00 | 0.00 | 74 | 1004.9 |
| 20260509103803 | 52 | 298 | 5.0 | 9.0 | 0.00 | 0.00 | 0.00 | 74 | 1004.9 |
| 20260509103603 | 52 | 298 | 5.0 | 9.0 | 0.00 | 0.00 | 0.00 | 74 | 1005.0 |
| 20260509103403 | 52 | 298 | 5.0 | 10.0 | 0.00 | 0.00 | 0.00 | 74 | 1005.0 |
| 20260509103203 | 52 | 298 | 5.0 | 10.0 | 0.00 | 0.00 | 0.00 | 74 | 1005.0 |
| 20260509103003 | 52 | 296 | 5.0 | 10.0 | 0.00 | 0.00 | 0.00 | 75 | 1005.0 |
| 20260509102803 | 52 | 296 | 6.0 | 11.0 | 0.00 | 0.00 | 0.00 | 75 | 1004.9 |
| 20260509102624 | 52 | 295 | 5.0 | 11.0 | 0.00 | 0.00 | 0.00 | 75 | 1004.9 |
| 20260509102403 | 52 | 296 | 5.0 | 11.0 | 0.00 | 0.00 | 0.00 | 75 | 1004.9 |
| 20260509102203 | 52 | 296 | 5.0 | 11.0 | 0.00 | 0.00 | 0.00 | 75 | 1004.8 |
| 20260509102003 | 52 | 296 | 5.0 | 11.0 | 0.00 | 0.00 | 0.00 | 75 | 1004.8 |
| 20260509101824 | 52 | 295 | 4.0 | 10.0 | 0.00 | 0.00 | 0.00 | 75 | 1004.7 |
| 20260509101624 | 52 | 297 | 4.0 | 9.0 | 0.00 | 0.00 | 0.00 | 75 | 1004.7 |
| 20260509101424 | 52 | 296 | 4.0 | 9.0 | 0.00 | 0.00 | 0.00 | 75 | 1004.7 |
| 20260509101203 | 51 | 294 | 4.0 | 8.0 | 0.00 | 0.00 | 0.00 | 75 | 1004.6 |
| 20260509101003 | 51 | 295 | 4.0 | 8.0 | 0.00 | 0.00 | 0.00 | 75 | 1004.6 |
| 20260509100803 | 51 | 295 | 5.0 | 8.0 | 0.00 | 0.00 | 0.00 | 75 | 1004.5 |
| 20260509100603 | 51 | 294 | 5.0 | 10.0 | 0.00 | 0.00 | 0.00 | 76 | 1004.6 |
| 20260509100424 | 51 | 295 | 5.0 | 10.0 | 0.00 | 0.00 | 0.00 | 75 | 1004.6 |
| 20260509100203 | 51 | 296 | 5.0 | 10.0 | 0.00 | 0.00 | 0.00 | 75 | 1004.6 |
| 20260509100004 | 51 | 297 | 4.0 | 10.0 | 0.00 | 0.00 | 0.00 | 76 | 1004.6 |
| 20260509095803 | 51 | 299 | 4.0 | 10.0 | 0.00 | 0.00 | 0.00 | 76 | 1004.8 |
| 20260509095603 | 51 | 299 | 4.0 | 8.0 | 0.00 | 0.00 | 0.00 | 76 | 1004.8 |
| 20260509095403 | 51 | 298 | 4.0 | 8.0 | 0.00 | 0.00 | 0.00 | 76 | 1004.8 |
| 20260509095224 | 51 | 299 | 4.0 | 8.0 | 0.00 | 0.00 | 0.00 | 75 | 1004.8 |
| 20260509095003 | 51 | 297 | 4.0 | 9.0 | 0.00 | 0.00 | 0.00 | 75 | 1004.9 |
| 20260509094824 | 51 | 296 | 4.0 | 9.0 | 0.00 | 0.00 | 0.00 | 75 | 1005.0 |
| 20260509094624 | 51 | 296 | 4.0 | 9.0 | 0.00 | 0.00 | 0.00 | 75 | 1004.9 |
| 20260509094403 | 51 | 297 | 4.0 | 9.0 | 0.00 | 0.00 | 0.00 | 75 | 1005.0 |
| 20260509094203 | 51 | 297 | 3.0 | 8.0 | 0.00 | 0.00 | 0.00 | 75 | 1005.0 |
| 20260509094004 | 51 | 296 | 3.0 | 8.0 | 0.00 | 0.00 | 0.00 | 75 | 1005.0 |
| 20260509093803 | 51 | 296 | 3.0 | 6.0 | 0.00 | 0.00 | 0.00 | 75 | 1005.0 |
| 20260509093603 | 51 | 296 | 3.0 | 6.0 | 0.00 | 0.00 | 0.00 | 75 | 1005.0 |
| 20260509093403 | 51 | 297 | 3.0 | 6.0 | 0.00 | 0.00 | 0.00 | 75 | 1005.0 |
| 20260509093203 | 51 | 297 | 3.0 | 6.0 | 0.00 | 0.00 | 0.00 | 75 | 1004.9 |
| 20260509093024 | 51 | 299 | 3.0 | 6.0 | 0.00 | 0.00 | 0.00 | 75 | 1004.9 |
| 20260509092824 | 51 | 299 | 2.0 | 6.0 | 0.00 | 0.00 | 0.00 | 75 | 1005.0 |
| 20260509092603 | 51 | 300 | 2.0 | 5.0 | 0.00 | 0.00 | 0.00 | 75 | 1004.9 |
| 20260509092403 | 51 | 300 | 2.0 | 5.0 | 0.00 | 0.00 | 0.00 | 75 | 1004.9 |
| 20260509092203 | 50 | 298 | 2.0 | 4.0 | 0.00 | 0.00 | 0.00 | 74 | 1004.9 |
| 20260509092024 | 50 | 297 | 2.0 | 4.0 | 0.00 | 0.00 | 0.00 | 75 | 1004.9 |
| 20260509091803 | 50 | 295 | 1.0 | 4.0 | 0.00 | 0.00 | 0.00 | 74 | 1004.9 |
| 20260509091603 | 50 | 295 | 1.0 | 4.0 | 0.00 | 0.00 | 0.00 | 74 | 1005.0 |
| 20260509091403 | 50 | 296 | 1.0 | 4.0 | 0.00 | 0.00 | 0.00 | 74 | 1005.0 |
| 20260509091203 | 50 | 298 | 1.0 | 4.0 | 0.00 | 0.00 | 0.00 | 74 | 1005.0 |
| 20260509091024 | 50 | 299 | 1.0 | 4.0 | 0.00 | 0.00 | 0.00 | 74 | 1005.0 |
| 20260509090803 | 50 | 299 | 1.0 | 4.0 | 0.00 | 0.00 | 0.00 | 74 | 1005.1 |
| 20260509090603 | 50 | 299 | 1.0 | 4.0 | 0.00 | 0.00 | 0.00 | 74 | 1005.1 |
| 20260509090403 | 50 | 297 | 1.0 | 4.0 | 0.00 | 0.00 | 0.00 | 74 | 1005.1 |
| 20260509090224 | 50 | 295 | 1.0 | 4.0 | 0.00 | 0.00 | 0.00 | 74 | 1005.1 |
| 20260509090003 | 50 | 293 | 1.0 | 4.0 | 0.00 | 0.00 | 0.00 | 74 | 1005.1 |
| 20260509085803 | 50 | 295 | 1.0 | 4.0 | 0.00 | 0.00 | 0.00 | 74 | 1005.1 |
| 20260509085603 | 50 | 296 | 1.0 | 4.0 | 0.00 | 0.00 | 0.00 | 74 | 1005.1 |
| 20260509085403 | 50 | 297 | 1.0 | 3.0 | 0.00 | 0.00 | 0.00 | 74 | 1005.1 |
| 20260509085203 | 50 | 298 | 1.0 | 4.0 | 0.00 | 0.00 | 0.00 | 74 | 1005.2 |
| 20260509085024 | 49 | 298 | 1.0 | 4.0 | 0.00 | 0.00 | 0.00 | 74 | 1005.1 |
| 20260509084803 | 49 | 296 | 1.0 | 4.0 | 0.00 | 0.00 | 0.00 | 74 | 1005.1 |
| 20260509084603 | 49 | 295 | 1.0 | 4.0 | 0.00 | 0.00 | 0.00 | 74 | 1005.2 |
| 20260509084403 | 49 | 295 | 1.0 | 4.0 | 0.00 | 0.00 | 0.00 | 74 | 1005.2 |
| 20260509084203 | 49 | 294 | 1.0 | 3.0 | 0.00 | 0.00 | 0.00 | 73 | 1005.2 |
| 20260509084024 | 49 | 294 | 0.0 | 3.0 | 0.00 | 0.00 | 0.00 | 73 | 1005.2 |
| 20260509083803 | 49 | 301 | 0.0 | 3.0 | 0.00 | 0.00 | 0.00 | 71 | 1005.2 |
| 20260509083603 | 48 | 302 | 1.0 | 2.0 | 0.00 | 0.00 | 0.00 | 70 | 1005.2 |
| 20260509083403 | 48 | 302 | 1.0 | 3.0 | 0.00 | 0.00 | 0.00 | 70 | 1005.3 |
| 20260509083203 | 48 | 302 | 1.0 | 3.0 | 0.00 | 0.00 | 0.00 | 70 | 1005.3 |
| 20260509083003 | 49 | 302 | 2.0 | 3.0 | 0.00 | 0.00 | 0.00 | 70 | 1005.4 |
| 20260509082824 | 49 | 302 | 2.0 | 3.0 | 0.00 | 0.00 | 0.00 | 70 | 1005.4 |
| 20260509082603 | 49 | 302 | 1.0 | 3.0 | 0.00 | 0.00 | 0.00 | 70 | 1005.3 |
| 20260509082403 | 49 | 302 | 1.0 | 3.0 | 0.00 | 0.00 | 0.00 | 70 | 1005.4 |
| 20260509082203 | 49 | 302 | 1.0 | 3.0 | 0.00 | 0.00 | 0.00 | 71 | 1005.4 |
| 20260509082003 | 49 | 302 | 0.0 | 3.0 | 0.00 | 0.00 | 0.00 | 70 | 1005.5 |
| 20260509081803 | 49 | 0 | 0.0 | 0.0 | 0.00 | 0.00 | 0.00 | 70 | 1005.5 |
| 20260509081603 | 49 | 0 | 0.0 | 0.0 | 0.00 | 0.00 | 0.00 | 70 | 1005.4 |
| 20260509081403 | 49 | 0 | 0.0 | 0.0 | 0.00 | 0.00 | 0.00 | 70 | 1005.4 |
| 20260509081224 | 49 | 0 | 0.0 | 0.0 | 0.00 | 0.00 | 0.00 | 70 | 1005.3 |
| 20260509081003 | 49 | 0 | 0.0 | 0.0 | 0.00 | 0.00 | 0.00 | 70 | 1005.4 |
| 20260509080803 | 49 | 0 | 0.0 | 0.0 | 0.00 | 0.00 | 0.00 | 70 | 1005.4 |
| 20260509080603 | 49 | 0 | 0.0 | 0.0 | 0.00 | 0.00 | 0.00 | 70 | 1005.4 |
| 20260509080403 | 49 | 0 | 0.0 | 0.0 | 0.00 | 0.00 | 0.00 | 69 | 1005.4 |
| 20260509080203 | 49 | 0 | 0.0 | 0.0 | 0.00 | 0.00 | 0.00 | 68 | 1005.5 |
| 20260509080003 | 49 | 0 | 0.0 | 0.0 | 0.00 | 0.00 | 0.00 | 68 | 1005.5 |
| 20260509075803 | 50 | 0 | 0.0 | 0.0 | 0.00 | 0.00 | 0.00 | 68 | 1005.4 |
| 20260509075624 | 50 | 0 | 0.0 | 0.0 | 0.00 | 0.00 | 0.00 | 69 | 1005.4 |
| 20260509075403 | 50 | 0 | 0.0 | 0.0 | 0.00 | 0.00 | 0.00 | 69 | 1005.4 |
| 20260509075203 | 50 | 0 | 0.0 | 0.0 | 0.00 | 0.00 | 0.00 | 69 | 1005.4 |
| 20260509075003 | 50 | 0 | 0.0 | 0.0 | 0.00 | 0.00 | 0.00 | 68 | 1005.4 |
| 20260509074803 | 50 | 0 | 0.0 | 0.0 | 0.00 | 0.00 | 0.00 | 69 | 1005.5 |
| 20260509074603 | 50 | 0 | 0.0 | 0.0 | 0.00 | 0.00 | 0.00 | 69 | 1005.4 |
| 20260509074403 | 50 | 0 | 0.0 | 0.0 | 0.00 | 0.00 | 0.00 | 68 | 1005.4 |
| 20260509074203 | 50 | 0 | 0.0 | 0.0 | 0.00 | 0.00 | 0.00 | 68 | 1005.4 |
| 20260509074024 | 50 | 0 | 0.0 | 0.0 | 0.00 | 0.00 | 0.00 | 68 | 1005.4 |
| 20260509073803 | 50 | 0 | 0.0 | 0.0 | 0.00 | 0.00 | 0.00 | 68 | 1005.4 |
| 20260509073603 | 50 | 0 | 0.0 | 0.0 | 0.00 | 0.00 | 0.00 | 68 | 1005.4 |
| 20260509073424 | 50 | 0 | 0.0 | 0.0 | 0.00 | 0.00 | 0.00 | 68 | 1005.4 |
| 20260509073203 | 50 | 0 | 0.0 | 0.0 | 0.00 | 0.00 | 0.00 | 68 | 1005.4 |
| 20260509073024 | 50 | 0 | 0.0 | 0.0 | 0.00 | 0.00 | 0.00 | 69 | 1005.3 |
| 20260509072803 | 50 | 0 | 0.0 | 0.0 | 0.00 | 0.00 | 0.00 | 69 | 1005.4 |
| 20260509072603 | 50 | 0 | 0.0 | 0.0 | 0.00 | 0.00 | 0.00 | 69 | 1005.5 |
| 20260509072403 | 50 | 0 | 0.0 | 0.0 | 0.00 | 0.00 | 0.00 | 69 | 1005.5 |
| 20260509072204 | 50 | 0 | 0.0 | 0.0 | 0.00 | 0.00 | 0.00 | 69 | 1005.5 |
| 20260509072003 | 50 | 0 | 0.0 | 0.0 | 0.00 | 0.00 | 0.00 | 69 | 1005.5 |
| 20260509071803 | 50 | 0 | 0.0 | 0.0 | 0.00 | 0.00 | 0.00 | 68 | 1005.5 |
| 20260509071603 | 50 | 0 | 0.0 | 0.0 | 0.00 | 0.00 | 0.00 | 68 | 1005.6 |
| 20260509071403 | 50 | 0 | 0.0 | 0.0 | 0.00 | 0.00 | 0.00 | 68 | 1005.5 |
| 20260509071203 | 50 | 0 | 0.0 | 0.0 | 0.00 | 0.00 | 0.00 | 68 | 1005.6 |
| 20260509071003 | 50 | 0 | 0.0 | 0.0 | 0.00 | 0.00 | 0.00 | 68 | 1005.6 |
| 20260509070603 | 50 | 0 | 0.0 | 0.0 | 0.00 | 0.00 | 0.00 | 69 | 1005.7 |
| 20260509070403 | 50 | 0 | 0.0 | 0.0 | 0.00 | 0.00 | 0.00 | 69 | 1005.8 |
| 20260509070203 | 50 | 0 | 0.0 | 0.0 | 0.00 | 0.00 | 0.00 | 69 | 1005.8 |
| 20260509070024 | 50 | 0 | 0.0 | 0.0 | 0.00 | 0.00 | 0.00 | 68 | 1005.8 |
| 20260509065824 | 50 | 0 | 0.0 | 0.0 | 0.00 | 0.00 | 0.00 | 68 | 1005.8 |
| 20260509065603 | 50 | 302 | 0.0 | 1.0 | 0.00 | 0.00 | 0.00 | 68 | 1005.8 |
| 20260509065403 | 50 | 302 | 0.0 | 1.0 | 0.00 | 0.00 | 0.00 | 68 | 1005.8 |
| 20260509065203 | 50 | 302 | 0.0 | 1.0 | 0.00 | 0.00 | 0.00 | 69 | 1005.8 |
| 20260509065003 | 50 | 302 | 0.0 | 1.0 | 0.00 | 0.00 | 0.00 | 69 | 1005.8 |
| 20260509064803 | 50 | 302 | 0.0 | 1.0 | 0.00 | 0.00 | 0.00 | 69 | 1005.8 |
| 20260509064603 | 50 | 302 | 0.0 | 1.0 | 0.00 | 0.00 | 0.00 | 69 | 1005.8 |
| 20260509064403 | 50 | 302 | 0.0 | 1.0 | 0.00 | 0.00 | 0.00 | 69 | 1005.8 |
| 20260509064204 | 50 | 302 | 0.0 | 1.0 | 0.00 | 0.00 | 0.00 | 69 | 1005.8 |
| 20260509064024 | 50 | 302 | 0.0 | 1.0 | 0.00 | 0.00 | 0.00 | 69 | 1005.9 |
| 20260509063803 | 50 | 0 | 0.0 | 0.0 | 0.00 | 0.00 | 0.00 | 69 | 1005.9 |
| 20260509063603 | 50 | 0 | 0.0 | 0.0 | 0.00 | 0.00 | 0.00 | 68 | 1005.9 |
| 20260509063403 | 50 | 0 | 0.0 | 0.0 | 0.00 | 0.00 | 0.00 | 68 | 1005.9 |
| 20260509063203 | 50 | 0 | 0.0 | 0.0 | 0.00 | 0.00 | 0.00 | 68 | 1005.9 |
| 20260509063003 | 50 | 0 | 0.0 | 0.0 | 0.00 | 0.00 | 0.00 | 68 | 1005.8 |
| 20260509062803 | 50 | 0 | 0.0 | 0.0 | 0.00 | 0.00 | 0.00 | 67 | 1005.8 |
| 20260509062624 | 50 | 0 | 0.0 | 0.0 | 0.00 | 0.00 | 0.00 | 67 | 1005.8 |
| 20260509062403 | 50 | 0 | 0.0 | 0.0 | 0.00 | 0.00 | 0.00 | 67 | 1005.9 |
| 20260509062224 | 50 | 0 | 0.0 | 0.0 | 0.00 | 0.00 | 0.00 | 67 | 1006.0 |
| 20260509062003 | 50 | 0 | 0.0 | 0.0 | 0.00 | 0.00 | 0.00 | 67 | 1006.0 |
| 20260509061803 | 50 | 0 | 0.0 | 0.0 | 0.00 | 0.00 | 0.00 | 67 | 1006.0 |
| 20260509061603 | 50 | 0 | 0.0 | 0.0 | 0.00 | 0.00 | 0.00 | 67 | 1006.0 |
| 20260509061424 | 50 | 302 | 0.0 | 1.0 | 0.00 | 0.00 | 0.00 | 67 | 1006.1 |
| 20260509061203 | 50 | 302 | 0.0 | 1.0 | 0.00 | 0.00 | 0.00 | 67 | 1006.0 |
| 20260509061003 | 50 | 302 | 0.0 | 1.0 | 0.00 | 0.00 | 0.00 | 67 | 1006.1 |
| 20260509060803 | 50 | 302 | 0.0 | 1.0 | 0.00 | 0.00 | 0.00 | 67 | 1006.2 |
| 20260509060603 | 50 | 302 | 0.0 | 1.0 | 0.00 | 0.00 | 0.00 | 67 | 1006.3 |
| 20260509060403 | 50 | 302 | 0.0 | 2.0 | 0.00 | 0.00 | 0.00 | 67 | 1006.3 |
| 20260509060224 | 50 | 302 | 0.0 | 2.0 | 0.00 | 0.00 | 0.00 | 67 | 1006.3 |
| 20260509060024 | 50 | 302 | 0.0 | 2.0 | 0.00 | 0.00 | 0.00 | 67 | 1006.3 |
| 20260509055803 | 51 | 302 | 0.0 | 2.0 | 0.00 | 0.00 | 0.00 | 67 | 1006.4 |
| 20260509055603 | 51 | 302 | 0.0 | 2.0 | 0.00 | 0.00 | 0.00 | 68 | 1006.4 |
| 20260509055403 | 51 | 302 | 0.0 | 2.0 | 0.00 | 0.00 | 0.00 | 69 | 1006.4 |
| 20260509055203 | 51 | 302 | 0.0 | 2.0 | 0.00 | 0.00 | 0.00 | 69 | 1006.5 |
| 20260509055003 | 51 | 0 | 0.0 | 0.0 | 0.00 | 0.00 | 0.00 | 69 | 1006.6 |
| 20260509054803 | 51 | 0 | 0.0 | 0.0 | 0.00 | 0.00 | 0.00 | 69 | 1006.6 |
| 20260509054603 | 50 | 0 | 0.0 | 0.0 | 0.00 | 0.00 | 0.00 | 68 | 1006.6 |
| 20260509054403 | 50 | 0 | 0.0 | 0.0 | 0.00 | 0.00 | 0.00 | 67 | 1006.6 |
| 20260509054203 | 50 | 0 | 0.0 | 0.0 | 0.00 | 0.00 | 0.00 | 67 | 1006.5 |
| 20260509054024 | 50 | 0 | 0.0 | 0.0 | 0.00 | 0.00 | 0.00 | 67 | 1006.5 |
| 20260509053824 | 50 | 0 | 0.0 | 0.0 | 0.00 | 0.00 | 0.00 | 67 | 1006.5 |
| 20260509053603 | 50 | 0 | 0.0 | 0.0 | 0.00 | 0.00 | 0.00 | 67 | 1006.5 |
| 20260509053403 | 50 | 0 | 0.0 | 0.0 | 0.00 | 0.00 | 0.00 | 67 | 1006.5 |
| 20260509053203 | 50 | 0 | 0.0 | 0.0 | 0.00 | 0.00 | 0.00 | 67 | 1006.5 |
| 20260509053003 | 50 | 0 | 0.0 | 0.0 | 0.00 | 0.00 | 0.00 | 67 | 1006.4 |
| 20260509052803 | 50 | 0 | 0.0 | 0.0 | 0.00 | 0.00 | 0.00 | 67 | 1006.5 |
| 20260509052603 | 50 | 0 | 0.0 | 0.0 | 0.00 | 0.00 | 0.00 | 66 | 1006.5 |
| 20260509052403 | 50 | 0 | 0.0 | 0.0 | 0.00 | 0.00 | 0.00 | 66 | 1006.5 |
| 20260509052203 | 50 | 0 | 0.0 | 0.0 | 0.00 | 0.00 | 0.00 | 66 | 1006.5 |
| 20260509052003 | 50 | 0 | 0.0 | 0.0 | 0.00 | 0.00 | 0.00 | 66 | 1006.5 |
| 20260509051803 | 50 | 0 | 0.0 | 0.0 | 0.00 | 0.00 | 0.00 | 66 | 1006.5 |
| 20260509051603 | 50 | 0 | 0.0 | 0.0 | 0.00 | 0.00 | 0.00 | 66 | 1006.6 |
| 20260509051403 | 50 | 0 | 0.0 | 0.0 | 0.00 | 0.00 | 0.00 | 65 | 1006.5 |
| 20260509051203 | 50 | 0 | 0.0 | 0.0 | 0.00 | 0.00 | 0.00 | 65 | 1006.6 |
| 20260509051003 | 50 | 0 | 0.0 | 0.0 | 0.00 | 0.00 | 0.00 | 65 | 1006.6 |
| 20260509050803 | 50 | 0 | 0.0 | 0.0 | 0.00 | 0.00 | 0.00 | 65 | 1006.6 |
| 20260509050603 | 50 | 0 | 0.0 | 0.0 | 0.00 | 0.00 | 0.00 | 65 | 1006.6 |
| 20260509050403 | 50 | 0 | 0.0 | 0.0 | 0.00 | 0.00 | 0.00 | 65 | 1006.7 |
| 20260509050203 | 50 | 0 | 0.0 | 0.0 | 0.00 | 0.00 | 0.00 | 65 | 1006.6 |
| 20260509050003 | 51 | 0 | 0.0 | 0.0 | 0.00 | 0.00 | 0.00 | 65 | 1006.7 |
| 20260509045803 | 51 | 0 | 0.0 | 0.0 | 0.00 | 0.00 | 0.00 | 64 | 1006.6 |
| 20260509045603 | 51 | 0 | 0.0 | 0.0 | 0.00 | 0.00 | 0.00 | 65 | 1006.6 |
| 20260509045403 | 51 | 0 | 0.0 | 0.0 | 0.00 | 0.00 | 0.00 | 64 | 1006.6 |
| 20260509045203 | 51 | 0 | 0.0 | 0.0 | 0.00 | 0.00 | 0.00 | 65 | 1006.6 |
| 20260509045003 | 51 | 0 | 0.0 | 0.0 | 0.00 | 0.00 | 0.00 | 65 | 1006.7 |
| 20260509044803 | 51 | 0 | 0.0 | 0.0 | 0.00 | 0.00 | 0.00 | 65 | 1006.7 |
| 20260509044603 | 51 | 0 | 0.0 | 0.0 | 0.00 | 0.00 | 0.00 | 64 | 1006.7 |
| 20260509044403 | 51 | 0 | 0.0 | 0.0 | 0.00 | 0.00 | 0.00 | 64 | 1006.7 |
| 20260509044203 | 51 | 0 | 0.0 | 0.0 | 0.00 | 0.00 | 0.00 | 64 | 1006.7 |
| 20260509044024 | 51 | 0 | 0.0 | 0.0 | 0.00 | 0.00 | 0.00 | 64 | 1006.7 |
| 20260509043803 | 51 | 0 | 0.0 | 0.0 | 0.00 | 0.00 | 0.00 | 65 | 1006.8 |
| 20260509043603 | 51 | 0 | 0.0 | 0.0 | 0.00 | 0.00 | 0.00 | 64 | 1006.8 |
| 20260509043403 | 51 | 0 | 0.0 | 0.0 | 0.00 | 0.00 | 0.00 | 64 | 1006.8 |
| 20260509043203 | 51 | 0 | 0.0 | 0.0 | 0.00 | 0.00 | 0.00 | 64 | 1006.8 |
| 20260509043003 | 51 | 0 | 0.0 | 0.0 | 0.00 | 0.00 | 0.00 | 63 | 1006.8 |
| 20260509042803 | 51 | 0 | 0.0 | 0.0 | 0.00 | 0.00 | 0.00 | 63 | 1006.8 |
| 20260509042603 | 51 | 0 | 0.0 | 0.0 | 0.00 | 0.00 | 0.00 | 63 | 1006.8 |
| 20260509042403 | 51 | 0 | 0.0 | 0.0 | 0.00 | 0.00 | 0.00 | 63 | 1006.8 |
| 20260509042203 | 51 | 0 | 0.0 | 0.0 | 0.00 | 0.00 | 0.00 | 64 | 1006.8 |
| 20260509042004 | 51 | 0 | 0.0 | 0.0 | 0.00 | 0.00 | 0.00 | 64 | 1006.8 |
| 20260509041803 | 51 | 0 | 0.0 | 0.0 | 0.00 | 0.00 | 0.00 | 64 | 1006.8 |
| 20260509041625 | 51 | 0 | 0.0 | 0.0 | 0.00 | 0.00 | 0.00 | 64 | 1006.8 |
| 20260509041403 | 51 | 0 | 0.0 | 0.0 | 0.00 | 0.00 | 0.00 | 63 | 1006.8 |
| 20260509041203 | 51 | 0 | 0.0 | 0.0 | 0.00 | 0.00 | 0.00 | 63 | 1006.8 |
| 20260509041003 | 51 | 0 | 0.0 | 0.0 | 0.00 | 0.00 | 0.00 | 62 | 1006.9 |
| 20260509040804 | 51 | 0 | 0.0 | 0.0 | 0.00 | 0.00 | 0.00 | 62 | 1006.9 |
| 20260509040603 | 51 | 0 | 0.0 | 0.0 | 0.00 | 0.00 | 0.00 | 63 | 1006.9 |
| 20260509040424 | 51 | 0 | 0.0 | 0.0 | 0.00 | 0.00 | 0.00 | 62 | 1007.0 |
| 20260509040204 | 51 | 0 | 0.0 | 0.0 | 0.00 | 0.00 | 0.00 | 62 | 1007.0 |
| 20260509040004 | 51 | 0 | 0.0 | 0.0 | 0.00 | 0.00 | 0.00 | 61 | 1007.1 |
| 20260509035803 | 51 | 0 | 0.0 | 0.0 | 0.00 | 0.00 | 0.00 | 60 | 1007.1 |
| 20260509035603 | 50 | 0 | 0.0 | 0.0 | 0.00 | 0.00 | 0.00 | 59 | 1007.1 |
| 20260509035403 | 51 | 0 | 0.0 | 0.0 | 0.00 | 0.00 | 0.00 | 59 | 1007.2 |
| 20260509035224 | 51 | 0 | 0.0 | 0.0 | 0.00 | 0.00 | 0.00 | 58 | 1007.2 |
| 20260509035003 | 50 | 0 | 0.0 | 0.0 | 0.00 | 0.00 | 0.00 | 57 | 1007.2 |
| 20260509034803 | 50 | 0 | 0.0 | 0.0 | 0.00 | 0.00 | 0.00 | 57 | 1007.2 |
| 20260509034603 | 51 | 0 | 0.0 | 0.0 | 0.00 | 0.00 | 0.00 | 56 | 1007.1 |
| 20260509034403 | 51 | 0 | 0.0 | 0.0 | 0.00 | 0.00 | 0.00 | 56 | 1007.1 |
| 20260509034203 | 51 | 0 | 0.0 | 0.0 | 0.00 | 0.00 | 0.00 | 56 | 1007.1 |
| 20260509034003 | 51 | 0 | 0.0 | 0.0 | 0.00 | 0.00 | 0.00 | 55 | 1007.1 |
| 20260509033803 | 51 | 0 | 0.0 | 0.0 | 0.00 | 0.00 | 0.00 | 55 | 1007.1 |
| 20260509033603 | 51 | 0 | 0.0 | 0.0 | 0.00 | 0.00 | 0.00 | 55 | 1007.1 |
| 20260509033424 | 51 | 0 | 0.0 | 0.0 | 0.00 | 0.00 | 0.00 | 55 | 1007.1 |
| 20260509033203 | 51 | 0 | 0.0 | 0.0 | 0.00 | 0.00 | 0.00 | 54 | 1007.1 |
| 20260509033003 | 51 | 0 | 0.0 | 0.0 | 0.00 | 0.00 | 0.00 | 53 | 1007.1 |
| 20260509032803 | 51 | 0 | 0.0 | 0.0 | 0.00 | 0.00 | 0.00 | 54 | 1007.1 |
| 20260509032624 | 52 | 0 | 0.0 | 0.0 | 0.00 | 0.00 | 0.00 | 54 | 1007.1 |
| 20260509032403 | 52 | 0 | 0.0 | 0.0 | 0.00 | 0.00 | 0.00 | 55 | 1007.2 |
| 20260509032203 | 52 | 0 | 0.0 | 0.0 | 0.00 | 0.00 | 0.00 | 54 | 1007.2 |
| 20260509032003 | 52 | 0 | 0.0 | 0.0 | 0.00 | 0.00 | 0.00 | 53 | 1007.2 |
| 20260509031803 | 52 | 0 | 0.0 | 0.0 | 0.00 | 0.00 | 0.00 | 51 | 1007.2 |
| 20260509031624 | 52 | 0 | 0.0 | 0.0 | 0.00 | 0.00 | 0.00 | 49 | 1007.2 |
| 20260509031403 | 52 | 0 | 0.0 | 0.0 | 0.00 | 0.00 | 0.00 | 49 | 1007.3 |
| 20260509031203 | 52 | 0 | 0.0 | 0.0 | 0.00 | 0.00 | 0.00 | 50 | 1007.3 |
| 20260509031024 | 52 | 302 | 0.0 | 1.0 | 0.00 | 0.00 | 0.00 | 51 | 1007.3 |
| 20260509030803 | 52 | 302 | 0.0 | 1.0 | 0.00 | 0.00 | 0.00 | 51 | 1007.3 |
| 20260509030603 | 52 | 302 | 0.0 | 1.0 | 0.00 | 0.00 | 0.00 | 51 | 1007.4 |
| 20260509030424 | 52 | 302 | 0.0 | 1.0 | 0.00 | 0.00 | 0.00 | 52 | 1007.4 |
| 20260509030203 | 51 | 302 | 0.0 | 1.0 | 0.00 | 0.00 | 0.00 | 53 | 1007.4 |
| 20260509030003 | 51 | 0 | 0.0 | 0.0 | 0.00 | 0.00 | 0.00 | 49 | 1007.4 |
| 20260509025803 | 52 | 0 | 0.0 | 0.0 | 0.00 | 0.00 | 0.00 | 51 | 1007.4 |
| 20260509025603 | 52 | 0 | 0.0 | 0.0 | 0.00 | 0.00 | 0.00 | 49 | 1007.3 |
| 20260509025403 | 52 | 0 | 0.0 | 0.0 | 0.00 | 0.00 | 0.00 | 49 | 1007.4 |
| 20260509025203 | 52 | 0 | 0.0 | 0.0 | 0.00 | 0.00 | 0.00 | 51 | 1007.4 |
| 20260509025003 | 52 | 0 | 0.0 | 0.0 | 0.00 | 0.00 | 0.00 | 54 | 1007.4 |
| 20260509024803 | 52 | 0 | 0.0 | 0.0 | 0.00 | 0.00 | 0.00 | 53 | 1007.4 |
| 20260509024603 | 52 | 0 | 0.0 | 0.0 | 0.00 | 0.00 | 0.00 | 51 | 1007.4 |
| 20260509024403 | 52 | 0 | 0.0 | 0.0 | 0.00 | 0.00 | 0.00 | 51 | 1007.4 |
| 20260509024203 | 52 | 0 | 0.0 | 0.0 | 0.00 | 0.00 | 0.00 | 50 | 1007.5 |
| 20260509024003 | 53 | 0 | 0.0 | 0.0 | 0.00 | 0.00 | 0.00 | 51 | 1007.5 |
| 20260509023803 | 53 | 0 | 0.0 | 0.0 | 0.00 | 0.00 | 0.00 | 49 | 1007.5 |
| 20260509023603 | 53 | 0 | 0.0 | 0.0 | 0.00 | 0.00 | 0.00 | 47 | 1007.5 |
| 20260509023424 | 53 | 302 | 0.0 | 1.0 | 0.00 | 0.00 | 0.00 | 49 | 1007.6 |
| 20260509023203 | 53 | 302 | 0.0 | 1.0 | 0.00 | 0.00 | 0.00 | 49 | 1007.6 |
| 20260509023024 | 53 | 302 | 0.0 | 1.0 | 0.00 | 0.00 | 0.00 | 50 | 1007.6 |
| 20260509022824 | 53 | 302 | 0.0 | 2.0 | 0.00 | 0.00 | 0.00 | 47 | 1007.6 |
| 20260509022603 | 53 | 302 | 0.0 | 2.0 | 0.00 | 0.00 | 0.00 | 46 | 1007.7 |
| 20260509022424 | 53 | 302 | 0.0 | 2.0 | 0.00 | 0.00 | 0.00 | 43 | 1007.6 |
| 20260509022203 | 54 | 302 | 0.0 | 2.0 | 0.00 | 0.00 | 0.00 | 45 | 1007.6 |
| 20260509022003 | 54 | 302 | 0.0 | 2.0 | 0.00 | 0.00 | 0.00 | 47 | 1007.6 |
| 20260509021803 | 54 | 302 | 0.0 | 2.0 | 0.00 | 0.00 | 0.00 | 43 | 1007.6 |
| 20260509021603 | 54 | 301 | 0.0 | 3.0 | 0.00 | 0.00 | 0.00 | 44 | 1007.6 |
| 20260509021403 | 54 | 301 | 0.0 | 3.0 | 0.00 | 0.00 | 0.00 | 45 | 1007.6 |
| 20260509021203 | 54 | 268 | 0.0 | 3.0 | 0.00 | 0.00 | 0.00 | 41 | 1007.7 |
| 20260509021003 | 54 | 267 | 0.0 | 3.0 | 0.00 | 0.00 | 0.00 | 41 | 1007.7 |
| 20260509020803 | 55 | 263 | 0.0 | 3.0 | 0.00 | 0.00 | 0.00 | 44 | 1007.7 |
| 20260509020603 | 55 | 186 | 0.0 | 1.0 | 0.00 | 0.00 | 0.00 | 43 | 1007.6 |
| 20260509020403 | 55 | 186 | 0.0 | 1.0 | 0.00 | 0.00 | 0.00 | 44 | 1007.7 |
| 20260509020203 | 56 | 186 | 0.0 | 1.0 | 0.00 | 0.00 | 0.00 | 40 | 1007.6 |
| 20260509020003 | 56 | 186 | 0.0 | 1.0 | 0.00 | 0.00 | 0.00 | 42 | 1007.6 |
| 20260509015803 | 56 | 186 | 0.0 | 1.0 | 0.00 | 0.00 | 0.00 | 42 | 1007.6 |
| 20260509015603 | 56 | 0 | 0.0 | 0.0 | 0.00 | 0.00 | 0.00 | 42 | 1007.6 |
| 20260509015403 | 56 | 186 | 0.0 | 1.0 | 0.00 | 0.00 | 0.00 | 40 | 1007.6 |
| 20260509015203 | 57 | 186 | 0.0 | 1.0 | 0.00 | 0.00 | 0.00 | 40 | 1007.5 |
| 20260509015003 | 57 | 186 | 0.0 | 1.0 | 0.00 | 0.00 | 0.00 | 37 | 1007.6 |
| 20260509014803 | 57 | 186 | 0.0 | 1.0 | 0.00 | 0.00 | 0.00 | 37 | 1007.6 |
| 20260509014403 | 58 | 177 | 0.0 | 4.0 | 0.00 | 0.00 | 0.00 | 35 | 1007.5 |
| 20260509014203 | 58 | 177 | 0.0 | 4.0 | 0.00 | 0.00 | 0.00 | 34 | 1007.5 |
| 20260509014024 | 58 | 177 | 0.0 | 4.0 | 0.00 | 0.00 | 0.00 | 31 | 1007.5 |
| 20260509013803 | 58 | 177 | 0.0 | 4.0 | 0.00 | 0.00 | 0.00 | 22 | 1007.5 |
| 20260509013603 | 58 | 175 | 0.0 | 4.0 | 0.00 | 0.00 | 0.00 | 23 | 1007.5 |
| 20260509013403 | 58 | 0 | 0.0 | 0.0 | 0.00 | 0.00 | 0.00 | 29 | 1007.4 |
| 20260509013203 | 58 | 0 | 0.0 | 0.0 | 0.00 | 0.00 | 0.00 | 30 | 1007.5 |
| 20260509013024 | 58 | 0 | 0.0 | 0.0 | 0.00 | 0.00 | 0.00 | 29 | 1007.4 |
| 20260509012803 | 58 | 0 | 0.0 | 0.0 | 0.00 | 0.00 | 0.00 | 30 | 1007.4 |
| 20260509012603 | 58 | 0 | 0.0 | 0.0 | 0.00 | 0.00 | 0.00 | 30 | 1007.4 |
| 20260509012403 | 59 | 0 | 0.0 | 0.0 | 0.00 | 0.00 | 0.00 | 31 | 1007.4 |
| 20260509012203 | 59 | 0 | 0.0 | 0.0 | 0.00 | 0.00 | 0.00 | 31 | 1007.4 |
| 20260509012003 | 59 | 0 | 0.0 | 0.0 | 0.00 | 0.00 | 0.00 | 30 | 1007.4 |
| 20260509011803 | 59 | 0 | 0.0 | 0.0 | 0.00 | 0.00 | 0.00 | 34 | 1007.4 |
| 20260509011624 | 59 | 0 | 0.0 | 0.0 | 0.00 | 0.00 | 0.00 | 34 | 1007.4 |
| 20260509011403 | 59 | 0 | 0.0 | 0.0 | 0.00 | 0.00 | 0.00 | 37 | 1007.4 |
| 20260509011203 | 60 | 0 | 0.0 | 0.0 | 0.00 | 0.00 | 0.00 | 37 | 1007.3 |
| 20260509011024 | 60 | 0 | 0.0 | 0.0 | 0.00 | 0.00 | 0.00 | 35 | 1007.3 |
| 20260509010824 | 60 | 0 | 0.0 | 0.0 | 0.00 | 0.00 | 0.00 | 36 | 1007.2 |
| 20260509010603 | 60 | 0 | 0.0 | 0.0 | 0.00 | 0.00 | 0.00 | 34 | 1007.2 |
| 20260509010403 | 60 | 0 | 0.0 | 0.0 | 0.00 | 0.00 | 0.00 | 30 | 1007.1 |
| 20260509010203 | 60 | 0 | 0.0 | 0.0 | 0.00 | 0.00 | 0.00 | 33 | 1007.1 |
| 20260509010004 | 60 | 0 | 0.0 | 0.0 | 0.00 | 0.00 | 0.00 | 29 | 1007.1 |
| 20260509005803 | 60 | 0 | 0.0 | 0.0 | 0.00 | 0.00 | 0.00 | 30 | 1007.1 |
| 20260509005603 | 60 | 0 | 0.0 | 0.0 | 0.00 | 0.00 | 0.00 | 30 | 1007.1 |
| 20260509005403 | 60 | 86 | 0.0 | 3.0 | 0.00 | 0.00 | 0.00 | 31 | 1007.0 |
| 20260509005203 | 60 | 87 | 1.0 | 3.0 | 0.00 | 0.00 | 0.00 | 28 | 1007.0 |
| 20260509005003 | 60 | 89 | 1.0 | 3.0 | 0.00 | 0.00 | 0.00 | 31 | 1007.0 |
| 20260509004824 | 60 | 89 | 1.0 | 4.0 | 0.00 | 0.00 | 0.00 | 31 | 1007.0 |
| 20260509004603 | 60 | 87 | 2.0 | 4.0 | 0.00 | 0.00 | 0.00 | 32 | 1007.0 |
| 20260509004403 | 60 | 87 | 2.0 | 6.0 | 0.00 | 0.00 | 0.00 | 27 | 1007.1 |
| 20260509004224 | 60 | 86 | 2.0 | 6.0 | 0.00 | 0.00 | 0.00 | 26 | 1007.0 |
| 20260509004024 | 60 | 79 | 1.0 | 6.0 | 0.00 | 0.00 | 0.00 | 26 | 1007.1 |
| 20260509003803 | 61 | 55 | 1.0 | 6.0 | 0.00 | 0.00 | 0.00 | 32 | 1007.0 |
| 20260509003603 | 61 | 52 | 1.0 | 6.0 | 0.00 | 0.00 | 0.00 | 32 | 1007.0 |
| 20260509003403 | 61 | 41 | 1.0 | 6.0 | 0.00 | 0.00 | 0.00 | 33 | 1007.0 |
| 20260509003203 | 61 | 37 | 1.0 | 8.0 | 0.00 | 0.00 | 0.00 | 36 | 1006.9 |
| 20260509003003 | 61 | 57 | 2.0 | 8.0 | 0.00 | 0.00 | 0.00 | 32 | 1006.8 |
| 20260509002803 | 61 | 60 | 2.0 | 8.0 | 0.00 | 0.00 | 0.00 | 32 | 1006.8 |
| 20260509002603 | 61 | 64 | 2.0 | 8.0 | 0.00 | 0.00 | 0.00 | 30 | 1006.9 |
| 20260509002403 | 61 | 70 | 2.0 | 8.0 | 0.00 | 0.00 | 0.00 | 29 | 1006.9 |
| 20260509002203 | 61 | 79 | 1.0 | 7.0 | 0.00 | 0.00 | 0.00 | 32 | 1006.9 |
| 20260509002003 | 61 | 64 | 1.0 | 4.0 | 0.00 | 0.00 | 0.00 | 43 | 1006.8 |
| 20260509001803 | 61 | 336 | 1.0 | 3.0 | 0.00 | 0.00 | 0.00 | 50 | 1006.9 |
| 20260509001603 | 61 | 305 | 1.0 | 4.0 | 0.00 | 0.00 | 0.00 | 50 | 1006.9 |
| 20260509001403 | 61 | 301 | 2.0 | 4.0 | 0.00 | 0.00 | 0.00 | 50 | 1006.9 |
| 20260509001203 | 62 | 300 | 2.0 | 4.0 | 0.00 | 0.00 | 0.00 | 49 | 1006.8 |
| 20260509001024 | 61 | 300 | 3.0 | 4.0 | 0.00 | 0.00 | 0.00 | 49 | 1006.9 |
| 20260509000803 | 61 | 299 | 3.0 | 6.0 | 0.00 | 0.00 | 0.00 | 48 | 1006.8 |
| 20260509000624 | 62 | 300 | 3.0 | 6.0 | 0.00 | 0.00 | 0.00 | 49 | 1006.8 |
| 20260509000403 | 62 | 302 | 4.0 | 6.0 | 0.00 | 0.00 | 0.00 | 48 | 1006.8 |
| 20260509000204 | 62 | 303 | 4.0 | 6.0 | 0.00 | 0.00 | 0.00 | 48 | 1006.7 |
| 20260509000003 | 62 | 304 | 4.0 | 6.0 | 0.00 | 0.00 | 0.00 | 47 | 1006.7 |
| 20260508235803 | 62 | 305 | 4.0 | 5.0 | 0.00 | 0.00 | 0.00 | 47 | 1006.7 |
| 20260508235624 | 62 | 304 | 4.0 | 5.0 | 0.00 | 0.00 | 0.00 | 47 | 1006.7 |
| 20260508235403 | 62 | 303 | 3.0 | 5.0 | 0.00 | 0.00 | 0.00 | 46 | 1006.7 |
| 20260508235224 | 62 | 303 | 3.0 | 4.0 | 0.00 | 0.00 | 0.00 | 46 | 1006.7 |
| 20260508235003 | 62 | 303 | 3.0 | 7.0 | 0.00 | 0.00 | 0.00 | 46 | 1006.7 |
| 20260508234824 | 62 | 303 | 3.0 | 7.0 | 0.00 | 0.00 | 0.00 | 46 | 1006.8 |
| 20260508234603 | 63 | 305 | 3.0 | 7.0 | 0.00 | 0.00 | 0.00 | 45 | 1006.8 |
| 20260508234403 | 63 | 306 | 4.0 | 7.0 | 0.00 | 0.00 | 0.00 | 43 | 1006.8 |
| 20260508234203 | 63 | 305 | 4.0 | 7.0 | 0.00 | 0.00 | 0.00 | 42 | 1006.8 |
| 20260508234003 | 63 | 304 | 4.0 | 6.0 | 0.00 | 0.00 | 0.00 | 43 | 1006.7 |
| 20260508233803 | 64 | 307 | 4.0 | 8.0 | 0.00 | 0.00 | 0.00 | 41 | 1006.7 |
| 20260508233603 | 64 | 307 | 5.0 | 8.0 | 0.00 | 0.00 | 0.00 | 42 | 1006.7 |
| 20260508233403 | 64 | 305 | 5.0 | 8.0 | 0.00 | 0.00 | 0.00 | 42 | 1006.7 |
| 20260508233203 | 64 | 304 | 5.0 | 9.0 | 0.00 | 0.00 | 0.00 | 42 | 1006.8 |
| 20260508233003 | 64 | 306 | 5.0 | 9.0 | 0.00 | 0.00 | 0.00 | 42 | 1006.8 |
| 20260508232803 | 64 | 304 | 5.0 | 9.0 | 0.00 | 0.00 | 0.00 | 42 | 1006.7 |
| 20260508232603 | 64 | 302 | 6.0 | 9.0 | 0.00 | 0.00 | 0.00 | 41 | 1006.7 |
| 20260508232403 | 64 | 303 | 6.0 | 9.0 | 0.00 | 0.00 | 0.00 | 42 | 1006.8 |
| 20260508232224 | 64 | 304 | 6.0 | 8.0 | 0.00 | 0.00 | 0.00 | 43 | 1006.8 |
| 20260508232003 | 64 | 302 | 6.0 | 9.0 | 0.00 | 0.00 | 0.00 | 43 | 1006.8 |
| 20260508231803 | 64 | 303 | 6.0 | 9.0 | 0.00 | 0.00 | 0.00 | 42 | 1006.8 |
| 20260508231603 | 64 | 304 | 5.0 | 9.0 | 0.00 | 0.00 | 0.00 | 40 | 1006.8 |
| 20260508231403 | 65 | 309 | 5.0 | 9.0 | 0.00 | 0.00 | 0.00 | 39 | 1006.8 |
| 20260508231203 | 65 | 309 | 5.0 | 9.0 | 0.00 | 0.00 | 0.00 | 39 | 1006.8 |
| 20260508231003 | 65 | 312 | 4.0 | 8.0 | 0.00 | 0.00 | 0.00 | 33 | 1006.8 |
| 20260508230803 | 65 | 312 | 4.0 | 8.0 | 0.00 | 0.00 | 0.00 | 31 | 1006.7 |
| 20260508230603 | 65 | 312 | 4.0 | 8.0 | 0.00 | 0.00 | 0.00 | 30 | 1006.7 |
| 20260508230424 | 65 | 306 | 4.0 | 7.0 | 0.00 | 0.00 | 0.00 | 30 | 1006.7 |
| 20260508230203 | 65 | 306 | 4.0 | 7.0 | 0.00 | 0.00 | 0.00 | 29 | 1006.7 |
| 20260508230003 | 65 | 308 | 4.0 | 7.0 | 0.00 | 0.00 | 0.00 | 29 | 1006.7 |
| 20260508225803 | 65 | 307 | 5.0 | 7.0 | 0.00 | 0.00 | 0.00 | 28 | 1006.7 |
| 20260508225603 | 65 | 306 | 5.0 | 10.0 | 0.00 | 0.00 | 0.00 | 27 | 1006.8 |
| 20260508225403 | 65 | 305 | 5.0 | 10.0 | 0.00 | 0.00 | 0.00 | 28 | 1006.8 |
| 20260508225203 | 65 | 304 | 5.0 | 10.0 | 0.00 | 0.00 | 0.00 | 29 | 1006.7 |
| 20260508225024 | 66 | 301 | 5.0 | 10.0 | 0.00 | 0.00 | 0.00 | 28 | 1006.7 |
| 20260508224803 | 66 | 299 | 5.0 | 10.0 | 0.00 | 0.00 | 0.00 | 33 | 1006.7 |
| 20260508224603 | 66 | 297 | 5.0 | 9.0 | 0.00 | 0.00 | 0.00 | 32 | 1006.7 |
| 20260508224424 | 66 | 298 | 5.0 | 8.0 | 0.00 | 0.00 | 0.00 | 33 | 1006.7 |
| 20260508224203 | 66 | 299 | 5.0 | 8.0 | 0.00 | 0.00 | 0.00 | 33 | 1006.7 |
| 20260508224003 | 66 | 303 | 5.0 | 8.0 | 0.00 | 0.00 | 0.00 | 33 | 1006.7 |
| 20260508223803 | 66 | 303 | 5.0 | 9.0 | 0.00 | 0.00 | 0.00 | 32 | 1006.7 |
| 20260508223624 | 66 | 304 | 5.0 | 9.0 | 0.00 | 0.00 | 0.00 | 32 | 1006.7 |
| 20260508223403 | 66 | 309 | 4.0 | 9.0 | 0.00 | 0.00 | 0.00 | 33 | 1006.7 |
| 20260508223203 | 66 | 318 | 4.0 | 9.0 | 0.00 | 0.00 | 0.00 | 32 | 1006.7 |
| 20260508223003 | 66 | 323 | 3.0 | 9.0 | 0.00 | 0.00 | 0.00 | 35 | 1006.7 |
| 20260508222803 | 65 | 345 | 2.0 | 8.0 | 0.00 | 0.00 | 0.00 | 32 | 1006.7 |
| 20260508222603 | 65 | 2 | 2.0 | 6.0 | 0.00 | 0.00 | 0.00 | 33 | 1006.7 |
| 20260508222424 | 65 | 353 | 3.0 | 8.0 | 0.00 | 0.00 | 0.00 | 31 | 1006.7 |
| 20260508222203 | 65 | 352 | 3.0 | 8.0 | 0.00 | 0.00 | 0.00 | 31 | 1006.7 |
| 20260508222003 | 64 | 349 | 3.0 | 8.0 | 0.00 | 0.00 | 0.00 | 29 | 1006.7 |
| 20260508221824 | 64 | 345 | 3.0 | 8.0 | 0.00 | 0.00 | 0.00 | 29 | 1006.8 |
| 20260508221603 | 64 | 340 | 3.0 | 8.0 | 0.00 | 0.00 | 0.00 | 29 | 1006.8 |
| 20260508221403 | 65 | 340 | 3.0 | 9.0 | 0.00 | 0.00 | 0.00 | 29 | 1006.8 |
| 20260508221203 | 65 | 335 | 4.0 | 9.0 | 0.00 | 0.00 | 0.00 | 29 | 1006.8 |
| 20260508221003 | 66 | 339 | 4.0 | 9.0 | 0.00 | 0.00 | 0.00 | 27 | 1006.8 |
| 20260508220803 | 66 | 337 | 4.0 | 9.0 | 0.00 | 0.00 | 0.00 | 29 | 1006.8 |
| 20260508220624 | 66 | 332 | 5.0 | 9.0 | 0.00 | 0.00 | 0.00 | 27 | 1006.8 |
| 20260508220403 | 66 | 323 | 5.0 | 10.0 | 0.00 | 0.00 | 0.00 | 31 | 1006.8 |
| 20260508220203 | 67 | 315 | 5.0 | 10.0 | 0.00 | 0.00 | 0.00 | 27 | 1006.8 |
| 20260508220004 | 67 | 305 | 5.0 | 10.0 | 0.00 | 0.00 | 0.00 | 29 | 1006.8 |
| 20260508215803 | 67 | 305 | 5.0 | 10.0 | 0.00 | 0.00 | 0.00 | 29 | 1006.8 |
| 20260508215603 | 67 | 307 | 4.0 | 8.0 | 0.00 | 0.00 | 0.00 | 28 | 1006.8 |
| 20260508215403 | 67 | 315 | 4.0 | 8.0 | 0.00 | 0.00 | 0.00 | 29 | 1006.8 |
| 20260508215224 | 67 | 329 | 4.0 | 8.0 | 0.00 | 0.00 | 0.00 | 27 | 1006.8 |
| 20260508215003 | 66 | 342 | 4.0 | 8.0 | 0.00 | 0.00 | 0.00 | 29 | 1006.9 |
| 20260508214803 | 66 | 341 | 4.0 | 8.0 | 0.00 | 0.00 | 0.00 | 26 | 1006.9 |
| 20260508214603 | 66 | 349 | 4.0 | 8.0 | 0.00 | 0.00 | 0.00 | 28 | 1006.9 |
| 20260508214424 | 66 | 346 | 4.0 | 8.0 | 0.00 | 0.00 | 0.00 | 27 | 1006.9 |
| 20260508214203 | 66 | 340 | 5.0 | 8.0 | 0.00 | 0.00 | 0.00 | 25 | 1006.9 |
| 20260508214003 | 66 | 346 | 5.0 | 9.0 | 0.00 | 0.00 | 0.00 | 26 | 1006.9 |
| 20260508213824 | 66 | 352 | 4.0 | 9.0 | 0.00 | 0.00 | 0.00 | 26 | 1006.9 |
| 20260508213603 | 66 | 347 | 5.0 | 11.0 | 0.00 | 0.00 | 0.00 | 28 | 1006.9 |
| 20260508213403 | 66 | 336 | 6.0 | 11.0 | 0.00 | 0.00 | 0.00 | 28 | 1007.0 |
| 20260508213203 | 67 | 325 | 6.0 | 11.0 | 0.00 | 0.00 | 0.00 | 27 | 1007.0 |
| 20260508213003 | 67 | 313 | 6.0 | 11.0 | 0.00 | 0.00 | 0.00 | 26 | 1007.0 |
| 20260508212824 | 67 | 309 | 6.0 | 11.0 | 0.00 | 0.00 | 0.00 | 28 | 1007.0 |
| 20260508212624 | 67 | 305 | 6.0 | 11.0 | 0.00 | 0.00 | 0.00 | 27 | 1006.9 |
| 20260508212424 | 67 | 310 | 6.0 | 11.0 | 0.00 | 0.00 | 0.00 | 27 | 1007.0 |
| 20260508212203 | 67 | 327 | 5.0 | 11.0 | 0.00 | 0.00 | 0.00 | 27 | 1007.0 |
| 20260508212003 | 67 | 342 | 5.0 | 10.0 | 0.00 | 0.00 | 0.00 | 30 | 1007.0 |
| 20260508211803 | 66 | 357 | 4.0 | 10.0 | 0.00 | 0.00 | 0.00 | 30 | 1007.1 |
| 20260508211603 | 66 | 7 | 4.0 | 10.0 | 0.00 | 0.00 | 0.00 | 29 | 1007.1 |
| 20260508211403 | 66 | 10 | 3.0 | 10.0 | 0.00 | 0.00 | 0.00 | 29 | 1007.1 |
| 20260508211203 | 66 | 10 | 4.0 | 12.0 | 0.00 | 0.00 | 0.00 | 29 | 1007.2 |
| 20260508211024 | 66 | 9 | 4.0 | 12.0 | 0.00 | 0.00 | 0.00 | 27 | 1007.2 |
| 20260508210803 | 66 | 356 | 5.0 | 12.0 | 0.00 | 0.00 | 0.00 | 28 | 1007.2 |
| 20260508210603 | 66 | 358 | 5.0 | 12.0 | 0.00 | 0.00 | 0.00 | 31 | 1007.2 |
| 20260508210403 | 66 | 346 | 5.0 | 12.0 | 0.00 | 0.00 | 0.00 | 27 | 1007.2 |
| 20260508210203 | 66 | 337 | 4.0 | 10.0 | 0.00 | 0.00 | 0.00 | 29 | 1007.2 |
| 20260508210003 | 66 | 330 | 4.0 | 10.0 | 0.00 | 0.00 | 0.00 | 25 | 1007.3 |
| 20260508205803 | 66 | 331 | 4.0 | 8.0 | 0.00 | 0.00 | 0.00 | 31 | 1007.3 |
| 20260508205603 | 66 | 325 | 4.0 | 8.0 | 0.00 | 0.00 | 0.00 | 25 | 1007.3 |
| 20260508205424 | 66 | 335 | 4.0 | 8.0 | 0.00 | 0.00 | 0.00 | 26 | 1007.2 |
| 20260508205224 | 66 | 332 | 5.0 | 8.0 | 0.00 | 0.00 | 0.00 | 27 | 1007.3 |
| 20260508205003 | 66 | 325 | 5.0 | 9.0 | 0.00 | 0.00 | 0.00 | 26 | 1007.3 |
| 20260508204824 | 66 | 320 | 5.0 | 10.0 | 0.00 | 0.00 | 0.00 | 26 | 1007.3 |
| 20260508204603 | 66 | 316 | 5.0 | 10.0 | 0.00 | 0.00 | 0.00 | 27 | 1007.4 |
| 20260508204403 | 66 | 313 | 6.0 | 10.0 | 0.00 | 0.00 | 0.00 | 26 | 1007.4 |
| 20260508204203 | 66 | 310 | 6.0 | 15.0 | 0.00 | 0.00 | 0.00 | 25 | 1007.4 |
| 20260508204003 | 66 | 311 | 6.0 | 15.0 | 0.00 | 0.00 | 0.00 | 28 | 1007.4 |
| 20260508203824 | 65 | 313 | 5.0 | 15.0 | 0.00 | 0.00 | 0.00 | 26 | 1007.5 |
| 20260508203624 | 65 | 313 | 4.0 | 15.0 | 0.00 | 0.00 | 0.00 | 27 | 1007.6 |
| 20260508203403 | 65 | 319 | 3.0 | 15.0 | 0.00 | 0.00 | 0.00 | 28 | 1007.5 |
| 20260508203203 | 64 | 348 | 2.0 | 8.0 | 0.00 | 0.00 | 0.00 | 27 | 1007.5 |
| 20260508203024 | 64 | 345 | 3.0 | 9.0 | 0.00 | 0.00 | 0.00 | 32 | 1007.6 |
| 20260508202803 | 64 | 343 | 3.0 | 9.0 | 0.00 | 0.00 | 0.00 | 30 | 1007.6 |
| 20260508202603 | 64 | 345 | 4.0 | 9.0 | 0.00 | 0.00 | 0.00 | 27 | 1007.6 |
| 20260508202424 | 64 | 345 | 3.0 | 9.0 | 0.00 | 0.00 | 0.00 | 28 | 1007.7 |
| 20260508202203 | 64 | 343 | 3.0 | 9.0 | 0.00 | 0.00 | 0.00 | 28 | 1007.7 |
| 20260508202003 | 64 | 357 | 3.0 | 10.0 | 0.00 | 0.00 | 0.00 | 30 | 1007.6 |
| 20260508201803 | 65 | 347 | 3.0 | 10.0 | 0.00 | 0.00 | 0.00 | 33 | 1007.6 |
| 20260508201603 | 65 | 339 | 4.0 | 10.0 | 0.00 | 0.00 | 0.00 | 31 | 1007.6 |
| 20260508201403 | 66 | 329 | 4.0 | 10.0 | 0.00 | 0.00 | 0.00 | 27 | 1007.7 |
| 20260508201203 | 66 | 318 | 5.0 | 10.0 | 0.00 | 0.00 | 0.00 | 25 | 1007.7 |
| 20260508201003 | 66 | 316 | 5.0 | 8.0 | 0.00 | 0.00 | 0.00 | 30 | 1007.7 |
| 20260508200824 | 66 | 312 | 5.0 | 8.0 | 0.00 | 0.00 | 0.00 | 31 | 1007.7 |
| 20260508200603 | 66 | 311 | 5.0 | 8.0 | 0.00 | 0.00 | 0.00 | 28 | 1007.7 |
| 20260508200403 | 65 | 310 | 5.0 | 8.0 | 0.00 | 0.00 | 0.00 | 32 | 1007.8 |
| 20260508200203 | 65 | 316 | 4.0 | 8.0 | 0.00 | 0.00 | 0.00 | 31 | 1007.9 |
| 20260508200003 | 64 | 312 | 4.0 | 10.0 | 0.00 | 0.00 | 0.00 | 28 | 1007.9 |
| 20260508195803 | 65 | 314 | 4.0 | 10.0 | 0.00 | 0.00 | 0.00 | 26 | 1007.9 |
| 20260508195624 | 65 | 320 | 5.0 | 10.0 | 0.00 | 0.00 | 0.00 | 27 | 1008.0 |
| 20260508195403 | 65 | 337 | 5.0 | 10.0 | 0.00 | 0.00 | 0.00 | 27 | 1007.9 |
| 20260508195203 | 65 | 344 | 5.0 | 10.0 | 0.00 | 0.00 | 0.00 | 26 | 1008.0 |
| 20260508195003 | 65 | 347 | 5.0 | 9.0 | 0.00 | 0.00 | 0.00 | 28 | 1008.1 |
| 20260508194824 | 65 | 351 | 5.0 | 9.0 | 0.00 | 0.00 | 0.00 | 28 | 1008.1 |
| 20260508194603 | 66 | 352 | 5.0 | 10.0 | 0.00 | 0.00 | 0.00 | 32 | 1008.1 |
| 20260508194403 | 66 | 348 | 5.0 | 10.0 | 0.00 | 0.00 | 0.00 | 32 | 1008.1 |
| 20260508194203 | 66 | 348 | 5.0 | 10.0 | 0.00 | 0.00 | 0.00 | 28 | 1008.1 |
| 20260508194003 | 65 | 353 | 5.0 | 10.0 | 0.00 | 0.00 | 0.00 | 29 | 1008.1 |
| 20260508193803 | 65 | 339 | 6.0 | 14.0 | 0.00 | 0.00 | 0.00 | 26 | 1008.2 |
| 20260508193603 | 66 | 335 | 6.0 | 14.0 | 0.00 | 0.00 | 0.00 | 27 | 1008.3 |
| 20260508193403 | 66 | 329 | 7.0 | 14.0 | 0.00 | 0.00 | 0.00 | 26 | 1008.3 |
| 20260508193203 | 66 | 316 | 7.0 | 14.0 | 0.00 | 0.00 | 0.00 | 29 | 1008.5 |
| 20260508193003 | 66 | 310 | 6.0 | 14.0 | 0.00 | 0.00 | 0.00 | 26 | 1008.4 |
| 20260508192803 | 66 | 311 | 5.0 | 11.0 | 0.00 | 0.00 | 0.00 | 29 | 1008.4 |
| 20260508192603 | 66 | 304 | 3.0 | 11.0 | 0.00 | 0.00 | 0.00 | 30 | 1008.4 |
| 20260508192403 | 66 | 295 | 2.0 | 11.0 | 0.00 | 0.00 | 0.00 | 27 | 1008.4 |
| 20260508192203 | 66 | 299 | 1.0 | 11.0 | 0.00 | 0.00 | 0.00 | 27 | 1008.4 |
| 20260508192003 | 65 | 299 | 1.0 | 4.0 | 0.00 | 0.00 | 0.00 | 33 | 1008.5 |
| 20260508191803 | 65 | 301 | 1.0 | 4.0 | 0.00 | 0.00 | 0.00 | 34 | 1008.5 |
| 20260508191603 | 65 | 300 | 2.0 | 5.0 | 0.00 | 0.00 | 0.00 | 32 | 1008.6 |
| 20260508191424 | 64 | 302 | 2.0 | 5.0 | 0.00 | 0.00 | 0.00 | 31 | 1008.6 |
| 20260508191224 | 64 | 301 | 3.0 | 5.0 | 0.00 | 0.00 | 0.00 | 34 | 1008.5 |
| 20260508191003 | 64 | 306 | 3.0 | 5.0 | 0.00 | 0.00 | 0.00 | 32 | 1008.6 |
| 20260508190803 | 64 | 305 | 3.0 | 5.0 | 0.00 | 0.00 | 0.00 | 31 | 1008.6 |
| 20260508190603 | 64 | 305 | 4.0 | 9.0 | 0.00 | 0.00 | 0.00 | 33 | 1008.7 |
| 20260508190403 | 64 | 305 | 4.0 | 9.0 | 0.00 | 0.00 | 0.00 | 33 | 1008.7 |
| 20260508190203 | 64 | 309 | 3.0 | 9.0 | 0.00 | 0.00 | 0.00 | 32 | 1008.7 |
| 20260508190004 | 64 | 315 | 3.0 | 9.0 | 0.00 | 0.00 | 0.00 | 32 | 1008.7 |
| 20260508185803 | 64 | 328 | 3.0 | 9.0 | 0.00 | 0.00 | 0.00 | 30 | 1008.8 |
| 20260508185603 | 64 | 337 | 3.0 | 5.0 | 0.00 | 0.00 | 0.00 | 33 | 1008.9 |
| 20260508185403 | 64 | 336 | 3.0 | 7.0 | 0.00 | 0.00 | 0.00 | 31 | 1008.9 |
| 20260508185203 | 65 | 325 | 3.0 | 8.0 | 0.00 | 0.00 | 0.00 | 29 | 1008.9 |
| 20260508185003 | 65 | 310 | 3.0 | 8.0 | 0.00 | 0.00 | 0.00 | 30 | 1008.9 |
| 20260508184803 | 65 | 304 | 4.0 | 8.0 | 0.00 | 0.00 | 0.00 | 29 | 1008.9 |
| 20260508184603 | 65 | 302 | 4.0 | 8.0 | 0.00 | 0.00 | 0.00 | 31 | 1008.9 |
| 20260508184403 | 65 | 303 | 5.0 | 8.0 | 0.00 | 0.00 | 0.00 | 27 | 1008.9 |
| 20260508184203 | 64 | 305 | 5.0 | 8.0 | 0.00 | 0.00 | 0.00 | 32 | 1008.9 |
| 20260508184003 | 64 | 305 | 5.0 | 10.0 | 0.00 | 0.00 | 0.00 | 30 | 1009.0 |
| 20260508183803 | 64 | 305 | 5.0 | 10.0 | 0.00 | 0.00 | 0.00 | 33 | 1009.0 |
| 20260508183603 | 64 | 305 | 5.0 | 10.0 | 0.00 | 0.00 | 0.00 | 34 | 1009.0 |
| 20260508183403 | 63 | 308 | 4.0 | 10.0 | 0.00 | 0.00 | 0.00 | 32 | 1009.0 |
| 20260508183203 | 63 | 308 | 3.0 | 10.0 | 0.00 | 0.00 | 0.00 | 34 | 1009.0 |
| 20260508183003 | 63 | 323 | 2.0 | 8.0 | 0.00 | 0.00 | 0.00 | 35 | 1009.1 |
| 20260508182803 | 63 | 343 | 2.0 | 8.0 | 0.00 | 0.00 | 0.00 | 38 | 1009.1 |
| 20260508182603 | 63 | 350 | 2.0 | 8.0 | 0.00 | 0.00 | 0.00 | 38 | 1009.1 |
| 20260508182403 | 63 | 344 | 3.0 | 8.0 | 0.00 | 0.00 | 0.00 | 34 | 1009.2 |
| 20260508182203 | 63 | 349 | 3.0 | 8.0 | 0.00 | 0.00 | 0.00 | 35 | 1009.2 |
| 20260508182003 | 63 | 342 | 4.0 | 9.0 | 0.00 | 0.00 | 0.00 | 36 | 1009.3 |
| 20260508181803 | 63 | 331 | 4.0 | 9.0 | 0.00 | 0.00 | 0.00 | 36 | 1009.3 |
| 20260508181603 | 63 | 325 | 5.0 | 10.0 | 0.00 | 0.00 | 0.00 | 36 | 1009.4 |
| 20260508181403 | 63 | 318 | 6.0 | 11.0 | 0.00 | 0.00 | 0.00 | 38 | 1009.4 |
| 20260508181224 | 63 | 311 | 7.0 | 13.0 | 0.00 | 0.00 | 0.00 | 34 | 1009.4 |
| 20260508181024 | 63 | 304 | 6.0 | 13.0 | 0.00 | 0.00 | 0.00 | 33 | 1009.4 |
| 20260508180824 | 63 | 310 | 6.0 | 13.0 | 0.00 | 0.00 | 0.00 | 36 | 1009.5 |
| 20260508180603 | 63 | 319 | 5.0 | 13.0 | 0.00 | 0.00 | 0.00 | 40 | 1009.5 |
| 20260508180424 | 62 | 324 | 4.0 | 13.0 | 0.00 | 0.00 | 0.00 | 38 | 1009.5 |
| 20260508180203 | 62 | 335 | 3.0 | 7.0 | 0.00 | 0.00 | 0.00 | 37 | 1009.5 |